Time,TemperatureF,DewpointF,PressureIn,WindDirection,WindDirectionDegrees,WindSpeedMPH,WindSpeedGustMPH,Humidity,HourlyPrecipIn,Conditions,Clouds,dailyrainin,SoftwareType,DateUTC
2013-09-18 06:55:00,77.3,69.2,30.07,South,180,0.0,0.0,76,0.00,,---,0.00,VWS V13.01,2013-09-18 11:55:00,
2013-09-18 06:56:00,69.4,67.9,30.09,South,180,3.0,3.0,95,0.00,,---,0.00,VWS V13.01,2013-09-18 11:56:00,
2013-09-18 06:57:00,69.4,67.9,30.09,South,180,7.0,7.0,95,0.00,,---,0.00,VWS V13.01,2013-09-18 11:57:00,
2013-09-18 06:58:00,69.4,67.9,30.09,South,180,3.0,7.0,95,0.00,,---,0.00,VWS V13.01,2013-09-18 11:58:00,
2013-09-18 06:59:00,69.4,67.9,30.09,South,180,3.0,7.0,95,0.00,,---,0.00,VWS V13.01,2013-09-18 11:59:00,
2013-09-18 07:00:00,69.4,67.9,30.09,South,179,4.0,7.0,95,0.00,,---,0.00,VWS V13.01,2013-09-18 12:00:00,
2013-09-18 07:01:00,69.4,67.9,30.09,South,180,2.0,5.0,95,0.00,,---,0.00,VWS V13.01,2013-09-18 12:01:00,
2013-09-18 07:02:00,69.4,67.9,30.09,South,180,3.0,6.0,95,0.00,,---,0.00,VWS V13.01,2013-09-18 12:02:00,
2013-09-18 07:03:00,69.4,67.9,30.09,South,180,3.0,6.0,95,0.00,,---,0.00,VWS V13.01,2013-09-18 12:03:00,
2013-09-18 07:04:00,69.4,67.9,30.09,South,179,2.0,6.0,95,0.00,,---,0.00,VWS V13.01,2013-09-18 12:04:00,
2013-09-18 07:05:00,69.4,67.9,30.10,South,180,2.0,6.0,95,0.00,,---,0.00,VWS V13.01,2013-09-18 12:05:00,
2013-09-18 07:06:00,69.4,67.9,30.10,South,179,1.0,6.0,95,0.00,,---,0.00,VWS V13.01,2013-09-18 12:06:00,
2013-09-18 07:07:00,69.4,67.9,30.10,South,179,5.0,6.0,95,0.00,,---,0.00,VWS V13.01,2013-09-18 12:07:00,
2013-09-18 07:08:00,69.4,67.9,30.10,South,180,2.0,6.0,95,0.00,,---,0.00,VWS V13.01,2013-09-18 12:08:00,
2013-09-18 07:09:00,69.4,67.9,30.10,South,180,3.0,6.0,95,0.00,,---,0.00,VWS V13.01,2013-09-18 12:09:00,
2013-09-18 07:10:00,69.4,67.9,30.10,South,180,3.0,6.0,95,0.00,,---,0.00,VWS V13.01,2013-09-18 12:10:00,
2013-09-18 07:11:00,69.4,67.9,30.10,South,180,5.0,6.0,95,0.00,,---,0.00,VWS V13.01,2013-09-18 12:11:00,
2013-09-18 07:12:00,69.4,67.9,30.10,South,180,3.0,6.0,95,0.00,,---,0.00,VWS V13.01,2013-09-18 12:12:00,
2013-09-18 07:13:00,69.4,67.9,30.10,South,180,5.0,6.0,95,0.00,,---,0.00,VWS V13.01,2013-09-18 12:13:00,
2013-09-18 07:14:00,69.4,67.9,30.10,South,179,3.0,6.0,95,0.00,,---,0.00,VWS V13.01,2013-09-18 12:14:00,
2013-09-18 07:15:00,69.4,67.9,30.10,South,180,0.0,6.0,95,0.00,,---,0.00,VWS V13.01,2013-09-18 12:15:00,
2013-09-18 07:16:00,69.4,67.9,30.10,South,179,2.0,6.0,95,0.00,,---,0.00,VWS V13.01,2013-09-18 12:16:00,
2013-09-18 07:17:00,69.4,67.9,30.10,South,180,2.0,6.0,95,0.00,,---,0.00,VWS V13.01,2013-09-18 12:17:00,
2013-09-18 07:18:00,69.4,67.9,30.10,South,180,2.0,6.0,95,0.00,,---,0.00,VWS V13.01,2013-09-18 12:18:00,
2013-09-18 07:19:00,69.4,67.9,30.10,South,180,2.0,6.0,95,0.00,,---,0.00,VWS V13.01,2013-09-18 12:19:00,
2013-09-18 07:20:00,69.4,67.9,30.10,South,180,4.0,6.0,95,0.00,,---,0.00,VWS V13.01,2013-09-18 12:20:00,
2013-09-18 07:21:00,69.5,68.0,30.10,South,180,4.0,6.0,95,0.00,,---,0.00,VWS V13.01,2013-09-18 12:21:00,
2013-09-18 07:22:00,69.5,68.0,30.10,South,180,4.0,6.0,95,0.00,,---,0.00,VWS V13.01,2013-09-18 12:22:00,
2013-09-18 07:23:00,69.5,68.0,30.10,South,180,2.0,6.0,95,0.00,,---,0.00,VWS V13.01,2013-09-18 12:23:00,
2013-09-18 07:24:00,69.5,68.0,30.10,South,179,6.0,7.0,95,0.00,,---,0.00,VWS V13.01,2013-09-18 12:24:00,
2013-09-18 07:25:00,69.5,68.0,30.10,South,179,4.0,7.0,95,0.00,,---,0.00,VWS V13.01,2013-09-18 12:25:00,
2013-09-18 07:26:00,69.5,68.0,30.10,South,179,3.0,7.0,95,0.00,,---,0.00,VWS V13.01,2013-09-18 12:26:00,
2013-09-18 07:27:00,69.5,68.0,30.10,South,180,7.0,7.0,95,0.00,,---,0.00,VWS V13.01,2013-09-18 12:27:00,
2013-09-18 07:28:00,69.5,68.0,30.10,South,179,3.0,7.0,95,0.00,,---,0.00,VWS V13.01,2013-09-18 12:28:00,
2013-09-18 07:29:00,69.6,68.1,30.10,South,180,4.0,7.0,95,0.00,,---,0.00,VWS V13.01,2013-09-18 12:29:00,
2013-09-18 07:30:00,69.6,68.1,30.10,South,180,3.0,8.0,95,0.00,,---,0.00,VWS V13.01,2013-09-18 12:30:00,
2013-09-18 07:31:00,69.6,68.1,30.10,South,180,4.0,4.0,95,0.00,,---,0.00,VWS V13.01,2013-09-18 12:31:00,
2013-09-18 07:32:00,69.7,68.2,30.10,South,180,4.0,4.0,95,0.00,,---,0.00,VWS V13.01,2013-09-18 12:32:00,
2013-09-18 07:33:00,69.7,68.2,30.10,South,180,3.0,6.0,95,0.00,,---,0.00,VWS V13.01,2013-09-18 12:33:00,
2013-09-18 07:34:00,69.7,68.2,30.10,South,180,3.0,6.0,95,0.00,,---,0.00,VWS V13.01,2013-09-18 12:34:00,
2013-09-18 07:35:00,69.8,68.3,30.10,South,179,6.0,7.0,95,0.00,,---,0.00,VWS V13.01,2013-09-18 12:35:00,
2013-09-18 07:36:00,69.8,68.3,30.10,South,180,3.0,7.0,95,0.00,,---,0.00,VWS V13.01,2013-09-18 12:36:00,
2013-09-18 07:37:00,69.8,68.3,30.10,South,180,5.0,7.0,95,0.00,,---,0.00,VWS V13.01,2013-09-18 12:37:00,
2013-09-18 07:38:00,69.9,68.4,30.10,South,180,5.0,7.0,95,0.00,,---,0.00,VWS V13.01,2013-09-18 12:38:00,
2013-09-18 07:39:00,69.9,68.4,30.10,South,179,1.0,7.0,95,0.00,,---,0.00,VWS V13.01,2013-09-18 12:39:00,
2013-09-18 07:40:00,70.0,68.5,30.10,South,179,5.0,7.0,95,0.00,,---,0.00,VWS V13.01,2013-09-18 12:40:00,
2013-09-18 07:41:00,70.0,68.5,30.10,South,179,5.0,7.0,95,0.00,,---,0.00,VWS V13.01,2013-09-18 12:41:00,
2013-09-18 07:42:00,70.1,68.6,30.10,South,180,1.0,7.0,95,0.00,,---,0.00,VWS V13.01,2013-09-18 12:42:00,
2013-09-18 07:43:00,70.1,68.6,30.10,South,180,6.0,7.0,95,0.00,,---,0.00,VWS V13.01,2013-09-18 12:43:00,
2013-09-18 07:44:00,70.1,68.3,30.10,South,180,3.0,7.0,94,0.00,,---,0.00,VWS V13.01,2013-09-18 12:44:00,
2013-09-18 07:45:00,70.2,68.4,30.10,South,180,4.0,8.0,94,0.00,,---,0.00,VWS V13.01,2013-09-18 12:45:00,
2013-09-18 07:46:00,70.2,68.4,30.10,South,179,3.0,8.0,94,0.00,,---,0.00,VWS V13.01,2013-09-18 12:46:00,
2013-09-18 07:47:00,70.2,68.4,30.10,South,179,3.0,10.0,94,0.00,,---,0.00,VWS V13.01,2013-09-18 12:47:00,
2013-09-18 07:48:00,70.2,68.4,30.10,South,179,4.0,10.0,94,0.00,,---,0.00,VWS V13.01,2013-09-18 12:48:00,
2013-09-18 07:49:00,70.2,68.4,30.10,South,180,3.0,10.0,94,0.00,,---,0.00,VWS V13.01,2013-09-18 12:49:00,
2013-09-18 07:50:00,70.3,68.5,30.10,South,180,3.0,10.0,94,0.00,,---,0.00,VWS V13.01,2013-09-18 12:50:00,
2013-09-18 07:51:00,70.3,68.5,30.10,South,179,5.0,10.0,94,0.00,,---,0.00,VWS V13.01,2013-09-18 12:51:00,
2013-09-18 07:52:00,70.3,68.5,30.10,South,179,8.0,11.0,94,0.00,,---,0.00,VWS V13.01,2013-09-18 12:52:00,
2013-09-18 07:53:00,70.3,68.5,30.10,South,180,6.0,11.0,94,0.00,,---,0.00,VWS V13.01,2013-09-18 12:53:00,
2013-09-18 07:54:00,70.3,68.5,30.10,South,179,2.0,11.0,94,0.00,,---,0.00,VWS V13.01,2013-09-18 12:54:00,
2013-09-18 07:55:00,70.4,68.6,30.10,South,179,4.0,11.0,94,0.00,,---,0.00,VWS V13.01,2013-09-18 12:55:00,
2013-09-18 07:56:00,70.4,68.6,30.10,South,179,6.0,11.0,94,0.00,,---,0.00,VWS V13.01,2013-09-18 12:56:00,
2013-09-18 07:57:00,70.4,68.6,30.10,South,179,3.0,11.0,94,0.00,,---,0.00,VWS V13.01,2013-09-18 12:57:00,
2013-09-18 07:58:00,70.4,68.6,30.10,South,180,5.0,11.0,94,0.00,,---,0.00,VWS V13.01,2013-09-18 12:58:00,
2013-09-18 07:59:00,70.4,68.6,30.10,South,179,6.0,11.0,94,0.00,,---,0.00,VWS V13.01,2013-09-18 12:59:00,
2013-09-18 08:00:00,70.5,68.4,30.10,South,180,5.0,11.0,93,0.00,,---,0.00,VWS V13.01,2013-09-18 13:00:00,
2013-09-18 08:01:00,70.5,68.4,30.10,South,180,4.0,6.0,93,0.00,,---,0.00,VWS V13.01,2013-09-18 13:01:00,
2013-09-18 08:02:00,70.6,68.5,30.10,South,179,6.0,9.0,93,0.00,,---,0.00,VWS V13.01,2013-09-18 13:02:00,
2013-09-18 08:03:00,70.6,68.5,30.10,South,179,5.0,9.0,93,0.00,,---,0.00,VWS V13.01,2013-09-18 13:03:00,
2013-09-18 08:04:00,70.6,68.5,30.10,South,180,4.0,9.0,93,0.00,,---,0.00,VWS V13.01,2013-09-18 13:04:00,
2013-09-18 08:05:00,70.6,68.5,30.10,South,180,4.0,9.0,93,0.00,,---,0.00,VWS V13.01,2013-09-18 13:05:00,
2013-09-18 08:06:00,70.7,68.6,30.10,South,180,10.0,11.0,93,0.00,,---,0.00,VWS V13.01,2013-09-18 13:06:00,
2013-09-18 08:07:00,70.7,68.6,30.10,South,180,3.0,11.0,93,0.00,,---,0.00,VWS V13.01,2013-09-18 13:07:00,
2013-09-18 08:08:00,70.8,68.7,30.10,South,179,6.0,11.0,93,0.00,,---,0.00,VWS V13.01,2013-09-18 13:08:00,
2013-09-18 08:09:00,70.9,68.8,30.10,South,179,5.0,11.0,93,0.00,,---,0.00,VWS V13.01,2013-09-18 13:09:00,
2013-09-18 08:10:00,70.9,68.8,30.10,South,179,5.0,11.0,93,0.00,,---,0.00,VWS V13.01,2013-09-18 13:10:00,
2013-09-18 08:11:00,70.9,68.8,30.10,South,180,8.0,11.0,93,0.00,,---,0.00,VWS V13.01,2013-09-18 13:11:00,
2013-09-18 08:12:00,71.0,68.9,30.10,South,180,7.0,11.0,93,0.00,,---,0.00,VWS V13.01,2013-09-18 13:12:00,
2013-09-18 08:13:00,71.0,68.9,30.11,South,180,5.0,11.0,93,0.00,,---,0.00,VWS V13.01,2013-09-18 13:13:00,
2013-09-18 08:14:00,71.0,68.9,30.10,South,179,7.0,11.0,93,0.00,,---,0.00,VWS V13.01,2013-09-18 13:14:00,
2013-09-18 08:15:00,71.1,69.0,30.10,South,190,8.0,11.0,93,0.00,,---,0.00,VWS V13.01,2013-09-18 13:15:00,
2013-09-18 08:16:00,71.1,68.7,30.10,South,190,6.0,11.0,92,0.00,,---,0.00,VWS V13.01,2013-09-18 13:16:00,
2013-09-18 08:17:00,71.1,68.7,30.11,South,190,7.0,11.0,92,0.00,,---,0.00,VWS V13.01,2013-09-18 13:17:00,
2013-09-18 08:18:00,71.1,68.7,30.11,SSW,192,5.0,11.0,92,0.00,,---,0.00,VWS V13.01,2013-09-18 13:18:00,
2013-09-18 08:19:00,71.2,68.8,30.11,SSW,192,4.0,11.0,92,0.00,,---,0.00,VWS V13.01,2013-09-18 13:19:00,
2013-09-18 08:20:00,71.2,68.8,30.11,SSW,192,7.0,11.0,92,0.00,,---,0.00,VWS V13.01,2013-09-18 13:20:00,
2013-09-18 08:21:00,71.3,68.9,30.10,SSW,192,4.0,11.0,92,0.00,,---,0.00,VWS V13.01,2013-09-18 13:21:00,
2013-09-18 08:22:00,71.3,68.9,30.10,SSW,192,2.0,11.0,92,0.00,,---,0.00,VWS V13.01,2013-09-18 13:22:00,
2013-09-18 08:23:00,71.3,69.2,30.10,SSW,192,5.0,11.0,93,0.00,,---,0.00,VWS V13.01,2013-09-18 13:23:00,
2013-09-18 08:24:00,71.3,69.2,30.10,SSW,192,4.0,11.0,93,0.00,,---,0.00,VWS V13.01,2013-09-18 13:24:00,
2013-09-18 08:25:00,71.3,68.9,30.10,SSW,192,5.0,11.0,92,0.00,,---,0.00,VWS V13.01,2013-09-18 13:25:00,
2013-09-18 08:26:00,71.3,68.9,30.10,SSW,195,5.0,12.0,92,0.00,,---,0.00,VWS V13.01,2013-09-18 13:26:00,
2013-09-18 08:27:00,71.3,68.9,30.10,SSW,196,6.0,12.0,92,0.00,,---,0.00,VWS V13.01,2013-09-18 13:27:00,
2013-09-18 08:28:00,71.3,68.9,30.10,SSW,194,9.0,12.0,92,0.00,,---,0.00,VWS V13.01,2013-09-18 13:28:00,
2013-09-18 08:29:00,71.3,68.9,30.11,SSW,195,4.0,12.0,92,0.00,,---,0.00,VWS V13.01,2013-09-18 13:29:00,
2013-09-18 08:30:00,71.3,68.9,30.11,SSW,196,8.0,12.0,92,0.00,,---,0.00,VWS V13.01,2013-09-18 13:30:00,
2013-09-18 08:31:00,71.3,68.9,30.11,SSW,196,4.0,8.0,92,0.00,,---,0.00,VWS V13.01,2013-09-18 13:31:00,
2013-09-18 08:32:00,71.4,69.0,30.11,SSW,195,5.0,8.0,92,0.00,,---,0.00,VWS V13.01,2013-09-18 13:32:00,
2013-09-18 08:33:00,71.4,69.0,30.11,SSW,196,6.0,8.0,92,0.00,,---,0.00,VWS V13.01,2013-09-18 13:33:00,
2013-09-18 08:34:00,71.4,69.0,30.10,SSW,196,6.0,9.0,92,0.00,,---,0.00,VWS V13.01,2013-09-18 13:34:00,
2013-09-18 08:35:00,71.5,69.1,30.10,SSW,196,6.0,11.0,92,0.00,,---,0.00,VWS V13.01,2013-09-18 13:35:00,
2013-09-18 08:36:00,71.5,69.1,30.10,SW,220,10.0,13.0,92,0.00,,---,0.00,VWS V13.01,2013-09-18 13:36:00,
2013-09-18 08:37:00,71.5,68.7,30.10,SW,219,10.0,13.0,91,0.00,,---,0.00,VWS V13.01,2013-09-18 13:37:00,
2013-09-18 08:38:00,71.5,68.7,30.10,SW,220,7.0,13.0,91,0.00,,---,0.00,VWS V13.01,2013-09-18 13:38:00,
2013-09-18 08:39:00,71.5,68.7,30.10,SW,220,7.0,13.0,91,0.00,,---,0.00,VWS V13.01,2013-09-18 13:39:00,
2013-09-18 08:40:00,71.5,68.7,30.11,SW,220,4.0,13.0,91,0.00,,---,0.00,VWS V13.01,2013-09-18 13:40:00,
2013-09-18 08:41:00,71.5,68.7,30.11,SW,219,7.0,13.0,91,0.00,,---,0.00,VWS V13.01,2013-09-18 13:41:00,
2013-09-18 08:42:00,71.5,68.7,30.11,SW,220,7.0,13.0,91,0.00,,---,0.00,VWS V13.01,2013-09-18 13:42:00,
2013-09-18 08:43:00,71.6,68.8,30.11,SW,215,5.0,13.0,91,0.00,,---,0.00,VWS V13.01,2013-09-18 13:43:00,
2013-09-18 08:44:00,71.6,68.8,30.11,SW,217,3.0,13.0,91,0.00,,---,0.00,VWS V13.01,2013-09-18 13:44:00,
2013-09-18 08:45:00,71.7,69.3,30.11,SW,217,4.0,13.0,92,0.00,,---,0.00,VWS V13.01,2013-09-18 13:45:00,
2013-09-18 08:46:00,71.8,69.3,30.11,SW,217,3.0,13.0,92,0.00,,---,0.00,VWS V13.01,2013-09-18 13:46:00,
2013-09-18 08:47:00,71.9,69.4,30.11,SW,217,5.0,13.0,92,0.00,,---,0.00,VWS V13.01,2013-09-18 13:47:00,
2013-09-18 08:48:00,72.1,69.7,30.11,SW,217,7.0,13.0,92,0.00,,---,0.00,VWS V13.01,2013-09-18 13:48:00,
2013-09-18 08:49:00,72.2,69.8,30.11,SW,217,5.0,13.0,92,0.00,,---,0.00,VWS V13.01,2013-09-18 13:49:00,
2013-09-18 08:50:00,72.3,69.5,30.11,SW,217,7.0,13.0,91,0.00,,---,0.00,VWS V13.01,2013-09-18 13:50:00,
2013-09-18 08:51:00,72.4,69.6,30.11,SW,217,9.0,13.0,91,0.00,,---,0.00,VWS V13.01,2013-09-18 13:51:00,
2013-09-18 08:52:00,72.5,69.7,30.11,SW,216,3.0,13.0,91,0.00,,---,0.00,VWS V13.01,2013-09-18 13:52:00,
2013-09-18 08:53:00,72.6,69.8,30.11,SSW,212,5.0,13.0,91,0.00,,---,0.00,VWS V13.01,2013-09-18 13:53:00,
2013-09-18 08:54:00,72.6,69.5,30.11,SSW,207,11.0,13.0,90,0.00,,---,0.00,VWS V13.01,2013-09-18 13:54:00,
2013-09-18 08:55:00,72.6,69.5,30.11,SSW,207,4.0,13.0,90,0.00,,---,0.00,VWS V13.01,2013-09-18 13:55:00,
2013-09-18 08:56:00,72.6,69.5,30.11,SSW,207,6.0,13.0,90,0.00,,---,0.00,VWS V13.01,2013-09-18 13:56:00,
2013-09-18 08:57:00,72.6,69.5,30.11,SSW,208,10.0,13.0,90,0.00,,---,0.00,VWS V13.01,2013-09-18 13:57:00,
2013-09-18 08:58:00,72.7,69.6,30.11,SSW,208,6.0,13.0,90,0.00,,---,0.00,VWS V13.01,2013-09-18 13:58:00,
2013-09-18 08:59:00,72.7,69.6,30.11,SSW,208,6.0,13.0,90,0.00,,---,0.00,VWS V13.01,2013-09-18 13:59:00,
2013-09-18 09:00:00,72.7,69.6,30.11,SSW,208,3.0,13.0,90,0.00,,---,0.00,VWS V13.01,2013-09-18 14:00:00,
2013-09-18 09:01:00,72.7,69.6,30.11,SSW,207,6.0,11.0,90,0.00,,---,0.00,VWS V13.01,2013-09-18 14:01:00,
2013-09-18 09:02:00,72.7,69.6,30.11,SSW,207,3.0,11.0,90,0.00,,---,0.00,VWS V13.01,2013-09-18 14:02:00,
2013-09-18 09:03:00,72.8,69.7,30.11,SSW,207,5.0,11.0,90,0.00,,---,0.00,VWS V13.01,2013-09-18 14:03:00,
2013-09-18 09:04:00,72.8,69.7,30.11,SSW,207,9.0,11.0,90,0.00,,---,0.00,VWS V13.01,2013-09-18 14:04:00,
2013-09-18 09:05:00,72.8,69.4,30.11,SSW,210,10.0,11.0,89,0.00,,---,0.00,VWS V13.01,2013-09-18 14:05:00,
2013-09-18 09:06:00,72.8,69.4,30.11,SSW,210,5.0,11.0,89,0.00,,---,0.00,VWS V13.01,2013-09-18 14:06:00,
2013-09-18 09:07:00,72.8,69.4,30.11,SSW,210,8.0,11.0,89,0.00,,---,0.00,VWS V13.01,2013-09-18 14:07:00,
2013-09-18 09:08:00,72.7,69.3,30.11,SSW,213,5.0,11.0,89,0.00,,---,0.00,VWS V13.01,2013-09-18 14:08:00,
2013-09-18 09:09:00,72.8,69.4,30.11,SW,215,4.0,11.0,89,0.00,,---,0.00,VWS V13.01,2013-09-18 14:09:00,
2013-09-18 09:10:00,72.8,69.4,30.11,SW,216,4.0,11.0,89,0.00,,---,0.00,VWS V13.01,2013-09-18 14:10:00,
2013-09-18 09:11:00,72.7,69.3,30.11,SW,215,4.0,13.0,89,0.00,,---,0.00,VWS V13.01,2013-09-18 14:11:00,
2013-09-18 09:12:00,72.7,69.3,30.11,SW,216,3.0,13.0,89,0.00,,---,0.00,VWS V13.01,2013-09-18 14:12:00,
2013-09-18 09:13:00,72.8,69.4,30.11,SW,216,6.0,13.0,89,0.00,,---,0.00,VWS V13.01,2013-09-18 14:13:00,
2013-09-18 09:14:00,72.8,69.7,30.11,SW,216,5.0,13.0,90,0.00,,---,0.00,VWS V13.01,2013-09-18 14:14:00,
2013-09-18 09:15:00,72.8,69.4,30.11,SW,217,5.0,13.0,89,0.00,,---,0.00,VWS V13.01,2013-09-18 14:15:00,
2013-09-18 09:16:00,72.8,69.4,30.11,SW,214,13.0,13.0,89,0.00,,---,0.00,VWS V13.01,2013-09-18 14:16:00,
2013-09-18 09:17:00,72.7,69.3,30.11,SSW,213,10.0,13.0,89,0.00,,---,0.00,VWS V13.01,2013-09-18 14:17:00,
2013-09-18 09:18:00,72.7,69.3,30.11,SW,217,6.0,13.0,89,0.00,,---,0.00,VWS V13.01,2013-09-18 14:18:00,
2013-09-18 09:19:00,72.6,69.2,30.11,SW,217,9.0,13.0,89,0.00,,---,0.00,VWS V13.01,2013-09-18 14:19:00,
2013-09-18 09:20:00,72.6,69.2,30.11,SW,217,5.0,13.0,89,0.00,,---,0.00,VWS V13.01,2013-09-18 14:20:00,
2013-09-18 09:21:00,72.7,69.6,30.11,SW,217,2.0,13.0,90,0.00,,---,0.00,VWS V13.01,2013-09-18 14:21:00,
2013-09-18 09:22:00,72.7,69.6,30.11,SW,217,5.0,13.0,90,0.00,,---,0.00,VWS V13.01,2013-09-18 14:22:00,
2013-09-18 09:23:00,72.7,69.6,30.11,SW,217,6.0,13.0,90,0.00,,---,0.00,VWS V13.01,2013-09-18 14:23:00,
2013-09-18 09:24:00,72.7,69.6,30.11,SW,217,4.0,13.0,90,0.00,,---,0.00,VWS V13.01,2013-09-18 14:24:00,
2013-09-18 09:25:00,72.8,69.4,30.11,SW,215,10.0,13.0,89,0.00,,---,0.00,VWS V13.01,2013-09-18 14:25:00,
2013-09-18 09:26:00,72.7,69.3,30.11,SW,216,4.0,13.0,89,0.00,,---,0.00,VWS V13.01,2013-09-18 14:26:00,
2013-09-18 09:27:00,72.7,69.3,30.11,SW,216,4.0,13.0,89,0.00,,---,0.00,VWS V13.01,2013-09-18 14:27:00,
2013-09-18 09:28:00,72.7,69.3,30.11,SW,216,6.0,13.0,89,0.00,,---,0.00,VWS V13.01,2013-09-18 14:28:00,
2013-09-18 09:29:00,72.8,69.4,30.11,SW,217,5.0,13.0,89,0.00,,---,0.00,VWS V13.01,2013-09-18 14:29:00,
2013-09-18 09:30:00,72.8,69.4,30.11,SW,217,7.0,13.0,89,0.00,,---,0.00,VWS V13.01,2013-09-18 14:30:00,
2013-09-18 09:31:00,72.8,69.4,30.11,SW,217,6.0,9.0,89,0.00,,---,0.00,VWS V13.01,2013-09-18 14:31:00,
2013-09-18 09:32:00,72.8,69.4,30.11,SW,217,3.0,9.0,89,0.00,,---,0.00,VWS V13.01,2013-09-18 14:32:00,
2013-09-18 09:33:00,72.8,69.4,30.11,SW,217,4.0,9.0,89,0.00,,---,0.00,VWS V13.01,2013-09-18 14:33:00,
2013-09-18 09:34:00,72.9,69.5,30.11,SW,217,5.0,9.0,89,0.00,,---,0.00,VWS V13.01,2013-09-18 14:34:00,
2013-09-18 09:35:00,72.9,69.8,30.11,SW,217,2.0,9.0,90,0.00,,---,0.00,VWS V13.01,2013-09-18 14:35:00,
2013-09-18 09:36:00,73.0,69.9,30.11,SW,217,2.0,9.0,90,0.00,,---,0.00,VWS V13.01,2013-09-18 14:36:00,
2013-09-18 09:37:00,73.0,69.9,30.11,SW,217,5.0,9.0,90,0.00,,---,0.00,VWS V13.01,2013-09-18 14:37:00,
2013-09-18 09:38:00,73.1,70.0,30.11,SW,217,5.0,9.0,90,0.00,,---,0.00,VWS V13.01,2013-09-18 14:38:00,
2013-09-18 09:39:00,73.1,69.7,30.11,SW,217,4.0,9.0,89,0.00,,---,0.00,VWS V13.01,2013-09-18 14:39:00,
2013-09-18 09:40:00,73.1,69.7,30.11,SW,217,7.0,9.0,89,0.00,,---,0.00,VWS V13.01,2013-09-18 14:40:00,
2013-09-18 09:41:00,73.1,69.7,30.11,SW,217,5.0,9.0,89,0.00,,---,0.00,VWS V13.01,2013-09-18 14:41:00,
2013-09-18 09:42:00,73.1,69.7,30.11,SW,217,6.0,9.0,89,0.00,,---,0.00,VWS V13.01,2013-09-18 14:42:00,
2013-09-18 09:43:00,73.2,69.8,30.11,SW,217,6.0,9.0,89,0.00,,---,0.00,VWS V13.01,2013-09-18 14:43:00,
2013-09-18 09:44:00,73.2,69.8,30.11,SW,221,11.0,11.0,89,0.00,,---,0.00,VWS V13.01,2013-09-18 14:44:00,
2013-09-18 09:45:00,73.2,69.8,30.11,SW,221,5.0,11.0,89,0.00,,---,0.00,VWS V13.01,2013-09-18 14:45:00,
2013-09-18 09:46:00,73.3,69.9,30.11,SW,221,2.0,11.0,89,0.00,,---,0.00,VWS V13.01,2013-09-18 14:46:00,
2013-09-18 09:47:00,73.3,69.9,30.11,SW,221,3.0,11.0,89,0.00,,---,0.00,VWS V13.01,2013-09-18 14:47:00,
2013-09-18 09:48:00,73.3,69.9,30.11,SW,220,5.0,11.0,89,0.00,,---,0.00,VWS V13.01,2013-09-18 14:48:00,
2013-09-18 09:49:00,73.4,70.0,30.11,SW,220,3.0,11.0,89,0.00,,---,0.00,VWS V13.01,2013-09-18 14:49:00,
2013-09-18 09:50:00,73.4,70.0,30.11,SW,220,6.0,11.0,89,0.00,,---,0.00,VWS V13.01,2013-09-18 14:50:00,
2013-09-18 09:51:00,73.5,70.1,30.11,SW,219,4.0,11.0,89,0.00,,---,0.00,VWS V13.01,2013-09-18 14:51:00,
2013-09-18 09:52:00,73.5,70.1,30.11,SW,220,3.0,11.0,89,0.00,,---,0.00,VWS V13.01,2013-09-18 14:52:00,
2013-09-18 09:53:00,73.6,70.2,30.11,SW,220,4.0,11.0,89,0.00,,---,0.00,VWS V13.01,2013-09-18 14:53:00,
2013-09-18 09:54:00,73.6,70.2,30.11,SW,219,3.0,11.0,89,0.00,,---,0.00,VWS V13.01,2013-09-18 14:54:00,
2013-09-18 09:55:00,73.7,69.9,30.11,SW,219,4.0,11.0,88,0.00,,---,0.00,VWS V13.01,2013-09-18 14:55:00,
2013-09-18 09:56:00,73.7,70.3,30.11,SW,220,3.0,11.0,89,0.00,,---,0.00,VWS V13.01,2013-09-18 14:56:00,
2013-09-18 09:57:00,73.8,70.4,30.11,SW,219,6.0,11.0,89,0.00,,---,0.00,VWS V13.01,2013-09-18 14:57:00,
2013-09-18 09:58:00,73.8,70.0,30.11,SW,221,8.0,11.0,88,0.00,,---,0.00,VWS V13.01,2013-09-18 14:58:00,
2013-09-18 09:59:00,73.8,70.0,30.11,SW,222,6.0,11.0,88,0.00,,---,0.00,VWS V13.01,2013-09-18 14:59:00,
2013-09-18 10:00:00,73.9,70.1,30.11,SW,222,5.0,11.0,88,0.00,,---,0.00,VWS V13.01,2013-09-18 15:00:00,
2013-09-18 10:01:00,73.9,70.1,30.11,SW,223,3.0,7.0,88,0.00,,---,0.00,VWS V13.01,2013-09-18 15:01:00,
2013-09-18 10:02:00,73.9,70.1,30.11,SW,223,0.0,7.0,88,0.00,,---,0.00,VWS V13.01,2013-09-18 15:02:00,
2013-09-18 10:03:00,73.9,70.1,30.11,SW,223,5.0,7.0,88,0.00,,---,0.00,VWS V13.01,2013-09-18 15:03:00,
2013-09-18 10:04:00,73.9,70.1,30.11,SW,223,7.0,10.0,88,0.00,,---,0.00,VWS V13.01,2013-09-18 15:04:00,
2013-09-18 10:05:00,73.9,70.1,30.11,SW,223,4.0,10.0,88,0.00,,---,0.00,VWS V13.01,2013-09-18 15:05:00,
2013-09-18 10:06:00,74.0,70.2,30.11,SW,222,3.0,10.0,88,0.00,,---,0.00,VWS V13.01,2013-09-18 15:06:00,
2013-09-18 10:07:00,74.0,70.2,30.11,SW,222,5.0,10.0,88,0.00,,---,0.00,VWS V13.01,2013-09-18 15:07:00,
2013-09-18 10:08:00,74.0,70.2,30.11,SW,222,4.0,10.0,88,0.00,,---,0.00,VWS V13.01,2013-09-18 15:08:00,
2013-09-18 10:09:00,74.1,70.3,30.11,SW,222,6.0,10.0,88,0.00,,---,0.00,VWS V13.01,2013-09-18 15:09:00,
2013-09-18 10:10:00,74.1,70.0,30.11,SW,223,6.0,10.0,87,0.00,,---,0.00,VWS V13.01,2013-09-18 15:10:00,
2013-09-18 10:11:00,74.1,70.0,30.11,SW,222,4.0,10.0,87,0.00,,---,0.00,VWS V13.01,2013-09-18 15:11:00,
2013-09-18 10:12:00,74.2,70.4,30.11,SW,222,4.0,10.0,88,0.00,,---,0.00,VWS V13.01,2013-09-18 15:12:00,
2013-09-18 10:13:00,74.2,70.4,30.11,SW,222,5.0,10.0,88,0.00,,---,0.00,VWS V13.01,2013-09-18 15:13:00,
2013-09-18 10:14:00,74.3,70.5,30.11,SW,223,4.0,10.0,88,0.00,,---,0.00,VWS V13.01,2013-09-18 15:14:00,
2013-09-18 10:15:00,74.3,70.2,30.11,SW,223,6.0,10.0,87,0.00,,---,0.00,VWS V13.01,2013-09-18 15:15:00,
2013-09-18 10:16:00,74.4,70.3,30.11,SW,223,4.0,10.0,87,0.00,,---,0.00,VWS V13.01,2013-09-18 15:16:00,
2013-09-18 10:17:00,74.4,70.3,30.11,SW,223,6.0,10.0,87,0.00,,---,0.00,VWS V13.01,2013-09-18 15:17:00,
2013-09-18 10:18:00,74.4,70.3,30.11,SW,222,6.0,10.0,87,0.00,,---,0.00,VWS V13.01,2013-09-18 15:18:00,
2013-09-18 10:19:00,74.5,70.4,30.11,SW,222,3.0,10.0,87,0.00,,---,0.00,VWS V13.01,2013-09-18 15:19:00,
2013-09-18 10:20:00,74.5,70.4,30.11,SW,223,5.0,10.0,87,0.00,,---,0.00,VWS V13.01,2013-09-18 15:20:00,
2013-09-18 10:21:00,74.5,70.4,30.11,SW,223,4.0,10.0,87,0.00,,---,0.00,VWS V13.01,2013-09-18 15:21:00,
2013-09-18 10:22:00,74.6,70.5,30.11,SW,222,5.0,10.0,87,0.00,,---,0.00,VWS V13.01,2013-09-18 15:22:00,
2013-09-18 10:23:00,74.6,70.5,30.11,SW,222,4.0,10.0,87,0.00,,---,0.00,VWS V13.01,2013-09-18 15:23:00,
2013-09-18 10:24:00,74.6,70.5,30.11,SW,222,5.0,10.0,87,0.00,,---,0.00,VWS V13.01,2013-09-18 15:24:00,
2013-09-18 10:25:00,74.6,70.1,30.11,SW,223,5.0,10.0,86,0.00,,---,0.00,VWS V13.01,2013-09-18 15:25:00,
2013-09-18 10:26:00,74.7,70.2,30.11,SW,223,6.0,10.0,86,0.00,,---,0.00,VWS V13.01,2013-09-18 15:26:00,
2013-09-18 10:27:00,74.7,70.6,30.11,SW,223,5.0,10.0,87,0.00,,---,0.00,VWS V13.01,2013-09-18 15:27:00,
2013-09-18 10:28:00,74.7,70.6,30.11,SW,223,3.0,10.0,87,0.00,,---,0.00,VWS V13.01,2013-09-18 15:28:00,
2013-09-18 10:29:00,74.8,70.7,30.11,SW,223,5.0,10.0,87,0.00,,---,0.00,VWS V13.01,2013-09-18 15:29:00,
2013-09-18 10:30:00,74.8,70.7,30.11,SW,222,6.0,10.0,87,0.00,,---,0.00,VWS V13.01,2013-09-18 15:30:00,
2013-09-18 10:31:00,74.9,70.8,30.11,SW,222,2.0,6.0,87,0.00,,---,0.00,VWS V13.01,2013-09-18 15:31:00,
2013-09-18 10:32:00,74.9,70.8,30.11,SW,222,7.0,7.0,87,0.00,,---,0.00,VWS V13.01,2013-09-18 15:32:00,
2013-09-18 10:33:00,75.0,70.9,30.11,SW,222,5.0,8.0,87,0.00,,---,0.00,VWS V13.01,2013-09-18 15:33:00,
2013-09-18 10:34:00,75.0,70.5,30.11,SW,223,5.0,8.0,86,0.00,,---,0.00,VWS V13.01,2013-09-18 15:34:00,
2013-09-18 10:35:00,75.1,70.6,30.11,SW,222,3.0,8.0,86,0.00,,---,0.00,VWS V13.01,2013-09-18 15:35:00,
2013-09-18 10:36:00,75.2,70.7,30.11,SW,222,6.0,11.0,86,0.00,,---,0.00,VWS V13.01,2013-09-18 15:36:00,
2013-09-18 10:37:00,75.2,70.7,30.11,SW,222,4.0,11.0,86,0.00,,---,0.00,VWS V13.01,2013-09-18 15:37:00,
2013-09-18 10:38:00,75.3,71.2,30.11,SW,222,4.0,11.0,87,0.00,,---,0.00,VWS V13.01,2013-09-18 15:38:00,
2013-09-18 10:39:00,75.5,71.0,30.11,SW,222,7.0,11.0,86,0.00,,---,0.00,VWS V13.01,2013-09-18 15:39:00,
2013-09-18 10:40:00,75.6,71.1,30.11,SW,222,3.0,11.0,86,0.00,,---,0.00,VWS V13.01,2013-09-18 15:40:00,
2013-09-18 10:41:00,75.7,71.6,30.11,SW,222,6.0,11.0,87,0.00,,---,0.00,VWS V13.01,2013-09-18 15:41:00,
2013-09-18 10:42:00,75.8,71.3,30.11,SW,230,3.0,13.0,86,0.00,,---,0.00,VWS V13.01,2013-09-18 15:42:00,
2013-09-18 10:43:00,75.9,71.4,30.11,SW,231,5.0,13.0,86,0.00,,---,0.00,VWS V13.01,2013-09-18 15:43:00,
2013-09-18 10:44:00,76.0,71.5,30.10,SW,230,7.0,13.0,86,0.00,,---,0.00,VWS V13.01,2013-09-18 15:44:00,
2013-09-18 10:45:00,76.1,71.3,30.11,SW,230,6.0,13.0,85,0.00,,---,0.00,VWS V13.01,2013-09-18 15:45:00,
2013-09-18 10:46:00,76.1,71.3,30.10,SW,230,3.0,13.0,85,0.00,,---,0.00,VWS V13.01,2013-09-18 15:46:00,
2013-09-18 10:47:00,76.1,71.3,30.10,SW,230,3.0,13.0,85,0.00,,---,0.00,VWS V13.01,2013-09-18 15:47:00,
2013-09-18 10:48:00,76.1,70.9,30.10,SW,230,6.0,13.0,84,0.00,,---,0.00,VWS V13.01,2013-09-18 15:48:00,
2013-09-18 10:49:00,76.0,70.8,30.10,SW,230,4.0,13.0,84,0.00,,---,0.00,VWS V13.01,2013-09-18 15:49:00,
2013-09-18 10:50:00,76.0,70.8,30.10,SW,230,9.0,13.0,84,0.00,,---,0.00,VWS V13.01,2013-09-18 15:50:00,
2013-09-18 10:51:00,75.9,70.7,30.10,SW,229,8.0,13.0,84,0.00,,---,0.00,VWS V13.01,2013-09-18 15:51:00,
2013-09-18 10:52:00,75.8,70.6,30.11,SW,229,6.0,13.0,84,0.00,,---,0.00,VWS V13.01,2013-09-18 15:52:00,
2013-09-18 10:53:00,75.8,70.6,30.10,SW,229,4.0,13.0,84,0.00,,---,0.00,VWS V13.01,2013-09-18 15:53:00,
2013-09-18 10:54:00,75.7,70.5,30.11,SW,229,7.0,13.0,84,0.00,,---,0.00,VWS V13.01,2013-09-18 15:54:00,
2013-09-18 10:55:00,75.5,70.3,30.10,SW,225,5.0,13.0,84,0.00,,---,0.00,VWS V13.01,2013-09-18 15:55:00,
2013-09-18 10:56:00,75.4,70.6,30.10,SW,225,6.0,13.0,85,0.00,,---,0.00,VWS V13.01,2013-09-18 15:56:00,
2013-09-18 10:57:00,75.4,70.6,30.10,SW,225,6.0,13.0,85,0.00,,---,0.00,VWS V13.01,2013-09-18 15:57:00,
2013-09-18 10:58:00,75.4,70.6,30.10,SW,225,5.0,13.0,85,0.00,,---,0.00,VWS V13.01,2013-09-18 15:58:00,
2013-09-18 10:59:00,75.3,70.8,30.10,SW,225,3.0,13.0,86,0.00,,---,0.00,VWS V13.01,2013-09-18 15:59:00,
2013-09-18 11:00:00,75.4,70.9,30.10,SW,225,2.0,13.0,86,0.00,,---,0.00,VWS V13.01,2013-09-18 16:00:00,
2013-09-18 11:01:00,75.4,70.9,30.10,SW,225,4.0,9.0,86,0.00,,---,0.00,VWS V13.01,2013-09-18 16:01:00,
2013-09-18 11:02:00,75.5,71.0,30.10,SW,225,1.0,9.0,86,0.00,,---,0.00,VWS V13.01,2013-09-18 16:02:00,
2013-09-18 11:03:00,75.6,71.1,30.10,SW,225,4.0,9.0,86,0.00,,---,0.00,VWS V13.01,2013-09-18 16:03:00,
2013-09-18 11:04:00,75.7,71.6,30.10,SW,225,2.0,9.0,87,0.00,,---,0.00,VWS V13.01,2013-09-18 16:04:00,
2013-09-18 11:05:00,75.9,71.4,30.10,SW,225,7.0,9.0,86,0.00,,---,0.00,VWS V13.01,2013-09-18 16:05:00,
2013-09-18 11:06:00,76.0,71.2,30.10,SW,225,3.0,9.0,85,0.00,,---,0.00,VWS V13.01,2013-09-18 16:06:00,
2013-09-18 11:07:00,76.1,71.6,30.10,SW,225,4.0,9.0,86,0.00,,---,0.00,VWS V13.01,2013-09-18 16:07:00,
2013-09-18 11:08:00,76.2,71.7,30.10,SW,225,5.0,9.0,86,0.00,,---,0.00,VWS V13.01,2013-09-18 16:08:00,
2013-09-18 11:09:00,76.3,71.5,30.10,SW,225,4.0,9.0,85,0.00,,---,0.00,VWS V13.01,2013-09-18 16:09:00,
2013-09-18 11:10:00,76.4,71.6,30.10,SW,227,12.0,12.0,85,0.00,,---,0.00,VWS V13.01,2013-09-18 16:10:00,
2013-09-18 11:11:00,76.5,71.7,30.10,SW,228,4.0,12.0,85,0.00,,---,0.00,VWS V13.01,2013-09-18 16:11:00,
2013-09-18 11:12:00,76.5,71.7,30.10,SW,227,5.0,12.0,85,0.00,,---,0.00,VWS V13.01,2013-09-18 16:12:00,
2013-09-18 11:13:00,76.5,71.3,30.10,SW,228,6.0,12.0,84,0.00,,---,0.00,VWS V13.01,2013-09-18 16:13:00,
2013-09-18 11:14:00,76.4,71.2,30.10,SW,227,7.0,12.0,84,0.00,,---,0.00,VWS V13.01,2013-09-18 16:14:00,
2013-09-18 11:15:00,76.4,71.2,30.10,SW,227,4.0,12.0,84,0.00,,---,0.00,VWS V13.01,2013-09-18 16:15:00,
2013-09-18 11:16:00,76.4,71.2,30.10,SW,228,1.0,12.0,84,0.00,,---,0.00,VWS V13.01,2013-09-18 16:16:00,
2013-09-18 11:17:00,76.4,71.2,30.10,SW,228,4.0,12.0,84,0.00,,---,0.00,VWS V13.01,2013-09-18 16:17:00,
2013-09-18 11:18:00,76.4,71.6,30.10,SW,228,3.0,12.0,85,0.00,,---,0.00,VWS V13.01,2013-09-18 16:18:00,
2013-09-18 11:19:00,76.4,71.2,30.10,SW,228,6.0,12.0,84,0.00,,---,0.00,VWS V13.01,2013-09-18 16:19:00,
2013-09-18 11:20:00,76.4,71.2,30.09,SW,227,4.0,12.0,84,0.00,,---,0.00,VWS V13.01,2013-09-18 16:20:00,
2013-09-18 11:21:00,76.4,71.6,30.09,SW,227,6.0,12.0,85,0.00,,---,0.00,VWS V13.01,2013-09-18 16:21:00,
2013-09-18 11:22:00,76.5,71.3,30.09,SW,227,4.0,12.0,84,0.00,,---,0.00,VWS V13.01,2013-09-18 16:22:00,
2013-09-18 11:23:00,76.5,71.7,30.09,SW,228,5.0,12.0,85,0.00,,---,0.00,VWS V13.01,2013-09-18 16:23:00,
2013-09-18 11:24:00,76.6,71.8,30.09,SW,228,5.0,12.0,85,0.00,,---,0.00,VWS V13.01,2013-09-18 16:24:00,
2013-09-18 11:25:00,76.7,71.9,30.09,SW,227,7.0,12.0,85,0.00,,---,0.00,VWS V13.01,2013-09-18 16:25:00,
2013-09-18 11:26:00,76.8,71.9,30.09,SW,227,4.0,12.0,85,0.00,,---,0.00,VWS V13.01,2013-09-18 16:26:00,
2013-09-18 11:27:00,76.9,71.7,30.09,SW,227,6.0,12.0,84,0.00,,---,0.00,VWS V13.01,2013-09-18 16:27:00,
2013-09-18 11:28:00,77.0,71.8,30.09,SW,227,6.0,12.0,84,0.00,,---,0.00,VWS V13.01,2013-09-18 16:28:00,
2013-09-18 11:29:00,77.1,71.9,30.09,SW,227,5.0,12.0,84,0.00,,---,0.00,VWS V13.01,2013-09-18 16:29:00,
2013-09-18 11:30:00,77.2,72.3,30.09,SW,227,9.0,12.0,85,0.00,,---,0.00,VWS V13.01,2013-09-18 16:30:00,
2013-09-18 11:31:00,77.4,72.2,30.09,SW,227,5.0,9.0,84,0.00,,---,0.00,VWS V13.01,2013-09-18 16:31:00,
2013-09-18 11:32:00,77.5,71.9,30.09,SW,227,5.0,9.0,83,0.00,,---,0.00,VWS V13.01,2013-09-18 16:32:00,
2013-09-18 11:33:00,77.6,72.4,30.09,SW,227,5.0,10.0,84,0.00,,---,0.00,VWS V13.01,2013-09-18 16:33:00,
2013-09-18 11:34:00,77.8,72.2,30.09,SW,227,7.0,10.0,83,0.00,,---,0.00,VWS V13.01,2013-09-18 16:34:00,
2013-09-18 11:35:00,77.9,71.6,30.09,SW,227,0.0,10.0,81,0.00,,---,0.00,VWS V13.01,2013-09-18 16:35:00,
2013-09-18 11:36:00,77.8,71.5,30.09,SW,227,5.0,10.0,81,0.00,,---,0.00,VWS V13.01,2013-09-18 16:36:00,
2013-09-18 11:37:00,77.9,72.0,30.09,SW,227,6.0,10.0,82,0.00,,---,0.00,VWS V13.01,2013-09-18 16:37:00,
2013-09-18 11:38:00,77.9,72.0,30.09,SW,227,7.0,10.0,82,0.00,,---,0.00,VWS V13.01,2013-09-18 16:38:00,
2013-09-18 11:39:00,78.0,72.1,30.08,SW,227,4.0,10.0,82,0.00,,---,0.00,VWS V13.01,2013-09-18 16:39:00,
2013-09-18 11:40:00,77.9,72.0,30.08,SW,227,4.0,10.0,82,0.00,,---,0.00,VWS V13.01,2013-09-18 16:40:00,
2013-09-18 11:41:00,78.0,72.1,30.08,SW,227,2.0,10.0,82,0.00,,---,0.00,VWS V13.01,2013-09-18 16:41:00,
2013-09-18 11:42:00,78.0,72.4,30.08,SW,227,4.0,10.0,83,0.00,,---,0.00,VWS V13.01,2013-09-18 16:42:00,
2013-09-18 11:43:00,78.1,72.2,30.08,SW,227,4.0,10.0,82,0.00,,---,0.00,VWS V13.01,2013-09-18 16:43:00,
2013-09-18 11:44:00,78.2,72.6,30.08,SW,227,6.0,10.0,83,0.00,,---,0.00,VWS V13.01,2013-09-18 16:44:00,
2013-09-18 11:45:00,78.2,72.3,30.08,SW,227,3.0,10.0,82,0.00,,---,0.00,VWS V13.01,2013-09-18 16:45:00,
2013-09-18 11:46:00,78.2,71.9,30.08,SW,225,5.0,10.0,81,0.00,,---,0.00,VWS V13.01,2013-09-18 16:46:00,
2013-09-18 11:47:00,78.2,71.9,30.08,SW,225,3.0,10.0,81,0.00,,---,0.00,VWS V13.01,2013-09-18 16:47:00,
2013-09-18 11:48:00,78.3,72.0,30.08,SW,225,3.0,10.0,81,0.00,,---,0.00,VWS V13.01,2013-09-18 16:48:00,
2013-09-18 11:49:00,78.4,72.4,30.08,SW,225,6.0,10.0,82,0.00,,---,0.00,VWS V13.01,2013-09-18 16:49:00,
2013-09-18 11:50:00,78.4,72.4,30.08,SW,225,5.0,10.0,82,0.00,,---,0.00,VWS V13.01,2013-09-18 16:50:00,
2013-09-18 11:51:00,78.5,72.2,30.08,SW,226,4.0,10.0,81,0.00,,---,0.00,VWS V13.01,2013-09-18 16:51:00,
2013-09-18 11:52:00,78.6,72.3,30.08,SW,226,3.0,10.0,81,0.00,,---,0.00,VWS V13.01,2013-09-18 16:52:00,
2013-09-18 11:53:00,78.7,72.8,30.08,SW,225,10.0,12.0,82,0.00,,---,0.00,VWS V13.01,2013-09-18 16:53:00,
2013-09-18 11:54:00,78.7,72.4,30.08,SW,225,4.0,12.0,81,0.00,,---,0.00,VWS V13.01,2013-09-18 16:54:00,
2013-09-18 11:55:00,78.7,72.4,30.08,SW,225,6.0,12.0,81,0.00,,---,0.00,VWS V13.01,2013-09-18 16:55:00,
2013-09-18 11:56:00,78.7,72.4,30.08,SW,225,3.0,12.0,81,0.00,,---,0.00,VWS V13.01,2013-09-18 16:56:00,
2013-09-18 11:57:00,78.7,72.0,30.08,SW,226,3.0,12.0,80,0.00,,---,0.00,VWS V13.01,2013-09-18 16:57:00,
2013-09-18 11:58:00,78.7,72.0,30.08,SW,226,4.0,12.0,80,0.00,,---,0.00,VWS V13.01,2013-09-18 16:58:00,
2013-09-18 11:59:00,78.7,72.4,30.08,SW,226,5.0,12.0,81,0.00,,---,0.00,VWS V13.01,2013-09-18 16:59:00,
2013-09-18 12:00:00,78.7,72.0,30.08,SW,226,4.0,12.0,80,0.00,,---,0.00,VWS V13.01,2013-09-18 17:00:00,
2013-09-18 12:01:00,78.7,72.4,30.08,SW,226,0.0,6.0,81,0.00,,---,0.00,VWS V13.01,2013-09-18 17:01:00,
2013-09-18 12:02:00,78.7,72.4,30.08,SW,227,6.0,10.0,81,0.00,,---,0.00,VWS V13.01,2013-09-18 17:02:00,
2013-09-18 12:03:00,78.9,72.2,30.08,SW,227,3.0,10.0,80,0.00,,---,0.00,VWS V13.01,2013-09-18 17:03:00,
2013-09-18 12:04:00,78.9,72.2,30.08,SW,228,3.0,10.0,80,0.00,,---,0.00,VWS V13.01,2013-09-18 17:04:00,
2013-09-18 12:05:00,78.9,72.2,30.08,SW,228,4.0,10.0,80,0.00,,---,0.00,VWS V13.01,2013-09-18 17:05:00,
2013-09-18 12:06:00,78.9,72.2,30.08,SW,228,3.0,10.0,80,0.00,,---,0.00,VWS V13.01,2013-09-18 17:06:00,
2013-09-18 12:07:00,78.8,72.1,30.08,SW,227,2.0,10.0,80,0.00,,---,0.00,VWS V13.01,2013-09-18 17:07:00,
2013-09-18 12:08:00,78.8,72.1,30.08,SW,228,0.0,10.0,80,0.00,,---,0.00,VWS V13.01,2013-09-18 17:08:00,
2013-09-18 12:09:00,78.8,72.5,30.08,SW,228,3.0,10.0,81,0.00,,---,0.00,VWS V13.01,2013-09-18 17:09:00,
2013-09-18 12:10:00,78.8,72.1,30.08,SW,228,4.0,10.0,80,0.00,,---,0.00,VWS V13.01,2013-09-18 17:10:00,
2013-09-18 12:11:00,78.8,72.1,30.08,SW,228,5.0,10.0,80,0.00,,---,0.00,VWS V13.01,2013-09-18 17:11:00,
2013-09-18 12:12:00,78.9,72.6,30.08,SW,228,7.0,10.0,81,0.00,,---,0.00,VWS V13.01,2013-09-18 17:12:00,
2013-09-18 12:13:00,78.8,72.1,30.08,SW,228,4.0,10.0,80,0.00,,---,0.00,VWS V13.01,2013-09-18 17:13:00,
2013-09-18 12:14:00,78.9,72.2,30.08,SW,228,5.0,10.0,80,0.00,,---,0.00,VWS V13.01,2013-09-18 17:14:00,
2013-09-18 12:15:00,78.9,72.2,30.08,SW,227,5.0,10.0,80,0.00,,---,0.00,VWS V13.01,2013-09-18 17:15:00,
2013-09-18 12:16:00,78.9,72.6,30.08,SW,227,4.0,10.0,81,0.00,,---,0.00,VWS V13.01,2013-09-18 17:16:00,
2013-09-18 12:17:00,78.9,72.2,30.08,SW,227,4.0,10.0,80,0.00,,---,0.00,VWS V13.01,2013-09-18 17:17:00,
2013-09-18 12:18:00,78.9,71.8,30.08,SW,228,2.0,10.0,79,0.00,,---,0.00,VWS V13.01,2013-09-18 17:18:00,
2013-09-18 12:19:00,78.9,72.2,30.08,SW,228,5.0,10.0,80,0.00,,---,0.00,VWS V13.01,2013-09-18 17:19:00,
2013-09-18 12:20:00,79.0,72.3,30.08,SW,227,3.0,10.0,80,0.00,,---,0.00,VWS V13.01,2013-09-18 17:20:00,
2013-09-18 12:21:00,79.0,72.3,30.08,SW,227,7.0,10.0,80,0.00,,---,0.00,VWS V13.01,2013-09-18 17:21:00,
2013-09-18 12:22:00,78.9,72.2,30.08,SW,227,5.0,10.0,80,0.00,,---,0.00,VWS V13.01,2013-09-18 17:22:00,
2013-09-18 12:23:00,78.9,72.2,30.08,SW,225,2.0,10.0,80,0.00,,---,0.00,VWS V13.01,2013-09-18 17:23:00,
2013-09-18 12:24:00,78.8,72.1,30.08,SW,225,5.0,10.0,80,0.00,,---,0.00,VWS V13.01,2013-09-18 17:24:00,
2013-09-18 12:25:00,78.7,72.0,30.08,SW,225,7.0,10.0,80,0.00,,---,0.00,VWS V13.01,2013-09-18 17:25:00,
2013-09-18 12:26:00,78.7,72.0,30.08,SW,225,2.0,10.0,80,0.00,,---,0.00,VWS V13.01,2013-09-18 17:26:00,
2013-09-18 12:27:00,78.7,72.4,30.08,SW,225,7.0,10.0,81,0.00,,---,0.00,VWS V13.01,2013-09-18 17:27:00,
2013-09-18 12:28:00,78.8,72.1,30.08,SW,225,3.0,10.0,80,0.00,,---,0.00,VWS V13.01,2013-09-18 17:28:00,
2013-09-18 12:29:00,78.8,72.1,30.08,SW,225,3.0,10.0,80,0.00,,---,0.00,VWS V13.01,2013-09-18 17:29:00,
2013-09-18 12:30:00,78.7,72.0,30.08,SW,225,3.0,10.0,80,0.00,,---,0.00,VWS V13.01,2013-09-18 17:30:00,
2013-09-18 12:31:00,78.8,72.1,30.08,SW,225,4.0,5.0,80,0.00,,---,0.00,VWS V13.01,2013-09-18 17:31:00,
2013-09-18 12:32:00,78.7,72.4,30.08,SW,225,0.0,5.0,81,0.00,,---,0.00,VWS V13.01,2013-09-18 17:32:00,
2013-09-18 12:33:00,78.8,72.5,30.08,SW,225,3.0,5.0,81,0.00,,---,0.00,VWS V13.01,2013-09-18 17:33:00,
2013-09-18 12:34:00,78.8,72.1,30.08,SW,225,0.0,5.0,80,0.00,,---,0.00,VWS V13.01,2013-09-18 17:34:00,
2013-09-18 12:35:00,79.0,73.0,30.07,SW,225,0.0,5.0,82,0.00,,---,0.00,VWS V13.01,2013-09-18 17:35:00,
2013-09-18 12:36:00,79.1,73.1,30.07,SW,225,5.0,5.0,82,0.00,,---,0.00,VWS V13.01,2013-09-18 17:36:00,
2013-09-18 12:37:00,79.2,73.2,30.08,SW,228,4.0,12.0,82,0.00,,---,0.00,VWS V13.01,2013-09-18 17:37:00,
2013-09-18 12:38:00,79.5,73.5,30.08,SW,228,5.0,12.0,82,0.00,,---,0.00,VWS V13.01,2013-09-18 17:38:00,
2013-09-18 12:39:00,79.8,73.4,30.07,SW,228,7.0,12.0,81,0.00,,---,0.00,VWS V13.01,2013-09-18 17:39:00,
2013-09-18 12:40:00,79.9,72.8,30.08,SW,228,4.0,12.0,79,0.00,,---,0.00,VWS V13.01,2013-09-18 17:40:00,
2013-09-18 12:41:00,80.0,72.9,30.08,SW,228,3.0,12.0,79,0.00,,---,0.00,VWS V13.01,2013-09-18 17:41:00,
2013-09-18 12:42:00,80.1,72.6,30.07,SW,228,0.0,12.0,78,0.00,,---,0.00,VWS V13.01,2013-09-18 17:42:00,
2013-09-18 12:43:00,80.1,72.6,30.08,SW,227,1.0,12.0,78,0.00,,---,0.00,VWS V13.01,2013-09-18 17:43:00,
2013-09-18 12:44:00,80.1,72.6,30.08,SW,227,4.0,12.0,78,0.00,,---,0.00,VWS V13.01,2013-09-18 17:44:00,
2013-09-18 12:45:00,80.1,72.2,30.08,SW,227,5.0,12.0,77,0.00,,---,0.00,VWS V13.01,2013-09-18 17:45:00,
2013-09-18 12:46:00,80.0,72.2,30.07,SW,227,5.0,12.0,77,0.00,,---,0.00,VWS V13.01,2013-09-18 17:46:00,
2013-09-18 12:47:00,80.0,72.5,30.07,SW,227,1.0,12.0,78,0.00,,---,0.00,VWS V13.01,2013-09-18 17:47:00,
2013-09-18 12:48:00,80.0,72.9,30.08,SW,227,5.0,12.0,79,0.00,,---,0.00,VWS V13.01,2013-09-18 17:48:00,
2013-09-18 12:49:00,80.0,72.9,30.08,SW,227,5.0,12.0,79,0.00,,---,0.00,VWS V13.01,2013-09-18 17:49:00,
2013-09-18 12:50:00,80.0,72.5,30.08,SW,226,5.0,12.0,78,0.00,,---,0.00,VWS V13.01,2013-09-18 17:50:00,
2013-09-18 12:51:00,80.0,72.9,30.07,SW,226,3.0,12.0,79,0.00,,---,0.00,VWS V13.01,2013-09-18 17:51:00,
2013-09-18 12:52:00,80.0,72.5,30.07,SW,227,6.0,12.0,78,0.00,,---,0.00,VWS V13.01,2013-09-18 17:52:00,
2013-09-18 12:53:00,80.1,73.4,30.07,SW,225,8.0,12.0,80,0.00,,---,0.00,VWS V13.01,2013-09-18 17:53:00,
2013-09-18 12:54:00,80.1,72.6,30.07,SW,225,5.0,12.0,78,0.00,,---,0.00,VWS V13.01,2013-09-18 17:54:00,
2013-09-18 12:55:00,80.1,72.2,30.07,SW,225,6.0,12.0,77,0.00,,---,0.00,VWS V13.01,2013-09-18 17:55:00,
2013-09-18 12:56:00,80.1,72.6,30.07,SW,225,5.0,12.0,78,0.00,,---,0.00,VWS V13.01,2013-09-18 17:56:00,
2013-09-18 12:57:00,80.1,73.0,30.07,SW,225,1.0,12.0,79,0.00,,---,0.00,VWS V13.01,2013-09-18 17:57:00,
2013-09-18 12:58:00,80.1,73.0,30.07,SW,225,4.0,12.0,79,0.00,,---,0.00,VWS V13.01,2013-09-18 17:58:00,
2013-09-18 12:59:00,80.2,73.1,30.07,SW,225,3.0,12.0,79,0.00,,---,0.00,VWS V13.01,2013-09-18 17:59:00,
2013-09-18 13:00:00,80.3,73.2,30.07,SW,228,6.0,12.0,79,0.00,,---,0.00,VWS V13.01,2013-09-18 18:00:00,
2013-09-18 13:01:00,80.3,72.8,30.07,SW,228,2.0,6.0,78,0.00,,---,0.00,VWS V13.01,2013-09-18 18:01:00,
2013-09-18 13:02:00,80.4,73.3,30.07,SW,228,4.0,6.0,79,0.00,,---,0.00,VWS V13.01,2013-09-18 18:02:00,
2013-09-18 13:03:00,80.5,72.6,30.07,SW,227,0.0,6.0,77,0.00,,---,0.00,VWS V13.01,2013-09-18 18:03:00,
2013-09-18 13:04:00,80.5,72.6,30.07,SW,227,4.0,6.0,77,0.00,,---,0.00,VWS V13.01,2013-09-18 18:04:00,
2013-09-18 13:05:00,80.5,73.0,30.07,SW,227,5.0,7.0,78,0.00,,---,0.00,VWS V13.01,2013-09-18 18:05:00,
2013-09-18 13:06:00,80.6,73.1,30.07,SW,227,8.0,9.0,78,0.00,,---,0.00,VWS V13.01,2013-09-18 18:06:00,
2013-09-18 13:07:00,80.7,72.8,30.07,SW,227,1.0,9.0,77,0.00,,---,0.00,VWS V13.01,2013-09-18 18:07:00,
2013-09-18 13:08:00,80.7,72.8,30.07,SW,227,0.0,9.0,77,0.00,,---,0.00,VWS V13.01,2013-09-18 18:08:00,
2013-09-18 13:09:00,80.7,72.8,30.07,SW,227,2.0,9.0,77,0.00,,---,0.00,VWS V13.01,2013-09-18 18:09:00,
2013-09-18 13:10:00,80.6,72.7,30.07,SW,227,5.0,9.0,77,0.00,,---,0.00,VWS V13.01,2013-09-18 18:10:00,
2013-09-18 13:11:00,80.6,72.7,30.06,SW,227,5.0,9.0,77,0.00,,---,0.00,VWS V13.01,2013-09-18 18:11:00,
2013-09-18 13:12:00,80.5,72.6,30.06,SW,227,5.0,9.0,77,0.00,,---,0.00,VWS V13.01,2013-09-18 18:12:00,
2013-09-18 13:13:00,80.5,73.0,30.06,SW,227,6.0,9.0,78,0.00,,---,0.00,VWS V13.01,2013-09-18 18:13:00,
2013-09-18 13:14:00,80.5,73.0,30.06,SW,227,3.0,9.0,78,0.00,,---,0.00,VWS V13.01,2013-09-18 18:14:00,
2013-09-18 13:15:00,80.6,73.5,30.06,SW,227,6.0,9.0,79,0.00,,---,0.00,VWS V13.01,2013-09-18 18:15:00,
2013-09-18 13:16:00,80.6,73.1,30.06,SW,226,10.0,10.0,78,0.00,,---,0.00,VWS V13.01,2013-09-18 18:16:00,
2013-09-18 13:17:00,80.6,73.1,30.06,SW,226,6.0,10.0,78,0.00,,---,0.00,VWS V13.01,2013-09-18 18:17:00,
2013-09-18 13:18:00,80.6,73.1,30.06,SW,226,4.0,10.0,78,0.00,,---,0.00,VWS V13.01,2013-09-18 18:18:00,
2013-09-18 13:19:00,80.6,72.7,30.06,SW,226,6.0,10.0,77,0.00,,---,0.00,VWS V13.01,2013-09-18 18:19:00,
2013-09-18 13:20:00,80.5,72.6,30.06,SW,226,4.0,10.0,77,0.00,,---,0.00,VWS V13.01,2013-09-18 18:20:00,
2013-09-18 13:21:00,80.5,72.6,30.06,SW,226,3.0,10.0,77,0.00,,---,0.00,VWS V13.01,2013-09-18 18:21:00,
2013-09-18 13:22:00,80.5,73.0,30.06,SW,226,5.0,10.0,78,0.00,,---,0.00,VWS V13.01,2013-09-18 18:22:00,
2013-09-18 13:23:00,80.5,73.0,30.06,SW,226,10.0,10.0,78,0.00,,---,0.00,VWS V13.01,2013-09-18 18:23:00,
2013-09-18 13:24:00,80.5,72.6,30.06,SW,226,4.0,10.0,77,0.00,,---,0.00,VWS V13.01,2013-09-18 18:24:00,
2013-09-18 13:25:00,80.5,73.0,30.06,SW,226,5.0,10.0,78,0.00,,---,0.00,VWS V13.01,2013-09-18 18:25:00,
2013-09-18 13:26:00,80.4,72.5,30.06,SW,226,0.0,10.0,77,0.00,,---,0.00,VWS V13.01,2013-09-18 18:26:00,
2013-09-18 13:27:00,80.3,72.8,30.06,SW,226,1.0,10.0,78,0.00,,---,0.00,VWS V13.01,2013-09-18 18:27:00,
2013-09-18 13:28:00,80.3,73.2,30.06,SW,226,2.0,10.0,79,0.00,,---,0.00,VWS V13.01,2013-09-18 18:28:00,
2013-09-18 13:29:00,80.3,73.2,30.06,SW,226,5.0,10.0,79,0.00,,---,0.00,VWS V13.01,2013-09-18 18:29:00,
2013-09-18 13:30:00,80.4,73.3,30.06,SW,226,5.0,5.0,79,0.00,,---,0.00,VWS V13.01,2013-09-18 18:30:00,
2013-09-18 13:31:00,80.5,73.4,30.06,SW,226,6.0,6.0,79,0.00,,---,0.00,VWS V13.01,2013-09-18 18:31:00,
2013-09-18 13:32:00,80.5,73.8,30.06,SW,226,6.0,7.0,80,0.00,,---,0.00,VWS V13.01,2013-09-18 18:32:00,
2013-09-18 13:33:00,80.6,73.1,30.06,SW,226,5.0,7.0,78,0.00,,---,0.00,VWS V13.01,2013-09-18 18:33:00,
2013-09-18 13:34:00,80.6,73.1,30.06,SW,226,5.0,7.0,78,0.00,,---,0.00,VWS V13.01,2013-09-18 18:34:00,
2013-09-18 13:35:00,80.6,72.7,30.06,SW,226,3.0,7.0,77,0.00,,---,0.00,VWS V13.01,2013-09-18 18:35:00,
2013-09-18 13:36:00,80.5,72.6,30.06,SW,226,2.0,7.0,77,0.00,,---,0.00,VWS V13.01,2013-09-18 18:36:00,
2013-09-18 13:37:00,80.5,73.0,30.06,SW,226,3.0,7.0,78,0.00,,---,0.00,VWS V13.01,2013-09-18 18:37:00,
2013-09-18 13:38:00,80.4,72.9,30.06,SW,226,0.0,7.0,78,0.00,,---,0.00,VWS V13.01,2013-09-18 18:38:00,
2013-09-18 13:39:00,80.5,73.4,30.06,SW,226,7.0,10.0,79,0.00,,---,0.00,VWS V13.01,2013-09-18 18:39:00,
2013-09-18 13:40:00,80.6,73.5,30.06,SW,225,7.0,10.0,79,0.00,,---,0.00,VWS V13.01,2013-09-18 18:40:00,
2013-09-18 13:41:00,80.7,72.8,30.06,SW,225,4.0,10.0,77,0.00,,---,0.00,VWS V13.01,2013-09-18 18:41:00,
2013-09-18 13:42:00,80.7,72.8,30.06,SW,225,5.0,10.0,77,0.00,,---,0.00,VWS V13.01,2013-09-18 18:42:00,
2013-09-18 13:43:00,80.8,73.3,30.06,SW,225,5.0,10.0,78,0.00,,---,0.00,VWS V13.01,2013-09-18 18:43:00,
2013-09-18 13:44:00,80.8,73.3,30.06,SW,225,5.0,10.0,78,0.00,,---,0.00,VWS V13.01,2013-09-18 18:44:00,
2013-09-18 13:45:00,80.9,73.4,30.06,SW,225,5.0,10.0,78,0.00,,---,0.00,VWS V13.01,2013-09-18 18:45:00,
2013-09-18 13:46:00,81.1,74.0,30.06,SW,225,5.0,10.0,79,0.00,,---,0.00,VWS V13.01,2013-09-18 18:46:00,
2013-09-18 13:47:00,81.1,73.2,30.05,SW,225,6.0,10.0,77,0.00,,---,0.00,VWS V13.01,2013-09-18 18:47:00,
2013-09-18 13:48:00,81.2,73.3,30.05,SW,225,6.0,10.0,77,0.00,,---,0.00,VWS V13.01,2013-09-18 18:48:00,
2013-09-18 13:49:00,81.2,73.7,30.05,SW,225,0.0,10.0,78,0.00,,---,0.00,VWS V13.01,2013-09-18 18:49:00,
2013-09-18 13:50:00,81.4,74.3,30.05,SW,225,5.0,10.0,79,0.00,,---,0.00,VWS V13.01,2013-09-18 18:50:00,
2013-09-18 13:51:00,81.4,73.5,30.05,SW,225,3.0,10.0,77,0.00,,---,0.00,VWS V13.01,2013-09-18 18:51:00,
2013-09-18 13:52:00,81.6,74.5,30.05,SW,225,6.0,10.0,79,0.00,,---,0.00,VWS V13.01,2013-09-18 18:52:00,
2013-09-18 13:53:00,81.7,73.8,30.05,SW,225,5.0,10.0,77,0.00,,---,0.00,VWS V13.01,2013-09-18 18:53:00,
2013-09-18 13:54:00,81.7,73.4,30.05,SW,225,4.0,10.0,76,0.00,,---,0.00,VWS V13.01,2013-09-18 18:54:00,
2013-09-18 13:55:00,81.7,73.8,30.05,SW,225,5.0,10.0,77,0.00,,---,0.00,VWS V13.01,2013-09-18 18:55:00,
2013-09-18 13:56:00,81.7,74.2,30.05,SW,225,4.0,10.0,78,0.00,,---,0.00,VWS V13.01,2013-09-18 18:56:00,
2013-09-18 13:57:00,81.8,73.5,30.05,SW,225,3.0,10.0,76,0.00,,---,0.00,VWS V13.01,2013-09-18 18:57:00,
2013-09-18 13:58:00,81.9,74.0,30.05,SW,225,0.0,10.0,77,0.00,,---,0.00,VWS V13.01,2013-09-18 18:58:00,
2013-09-18 13:59:00,82.0,74.5,30.05,SW,216,10.0,11.0,78,0.00,,---,0.00,VWS V13.01,2013-09-18 18:59:00,
2013-09-18 14:00:00,82.0,74.5,30.05,SW,216,5.0,11.0,78,0.00,,---,0.00,VWS V13.01,2013-09-18 19:00:00,
2013-09-18 14:01:00,81.8,73.1,30.04,SW,216,4.0,6.0,75,0.00,,---,0.00,VWS V13.01,2013-09-18 19:01:00,
2013-09-18 14:02:00,81.8,73.5,30.04,SW,216,3.0,6.0,76,0.00,,---,0.00,VWS V13.01,2013-09-18 19:02:00,
2013-09-18 14:03:00,81.7,73.0,30.05,SW,216,4.0,6.0,75,0.00,,---,0.00,VWS V13.01,2013-09-18 19:03:00,
2013-09-18 14:04:00,81.6,73.3,30.05,SW,216,6.0,7.0,76,0.00,,---,0.00,VWS V13.01,2013-09-18 19:04:00,
2013-09-18 14:05:00,81.5,73.2,30.05,SW,216,5.0,8.0,76,0.00,,---,0.00,VWS V13.01,2013-09-18 19:05:00,
2013-09-18 14:06:00,81.4,73.1,30.05,SW,216,3.0,8.0,76,0.00,,---,0.00,VWS V13.01,2013-09-18 19:06:00,
2013-09-18 14:07:00,81.4,73.5,30.04,SW,216,4.0,8.0,77,0.00,,---,0.00,VWS V13.01,2013-09-18 19:07:00,
2013-09-18 14:08:00,81.3,73.0,30.04,SW,216,5.0,8.0,76,0.00,,---,0.00,VWS V13.01,2013-09-18 19:08:00,
2013-09-18 14:09:00,81.3,73.4,30.04,SW,216,1.0,8.0,77,0.00,,---,0.00,VWS V13.01,2013-09-18 19:09:00,
2013-09-18 14:10:00,81.3,73.4,30.04,SW,216,0.0,8.0,77,0.00,,---,0.00,VWS V13.01,2013-09-18 19:10:00,
2013-09-18 14:11:00,81.4,74.3,30.04,SW,215,7.0,8.0,79,0.00,,---,0.00,VWS V13.01,2013-09-18 19:11:00,
2013-09-18 14:12:00,81.5,73.6,30.04,SW,215,5.0,8.0,77,0.00,,---,0.00,VWS V13.01,2013-09-18 19:12:00,
2013-09-18 14:13:00,81.6,73.7,30.04,SW,216,7.0,8.0,77,0.00,,---,0.00,VWS V13.01,2013-09-18 19:13:00,
2013-09-18 14:14:00,81.6,73.3,30.05,SW,216,4.0,9.0,76,0.00,,---,0.00,VWS V13.01,2013-09-18 19:14:00,
2013-09-18 14:15:00,81.7,73.8,30.05,SW,216,7.0,10.0,77,0.00,,---,0.00,VWS V13.01,2013-09-18 19:15:00,
2013-09-18 14:16:00,81.7,73.4,30.04,SW,216,5.0,10.0,76,0.00,,---,0.00,VWS V13.01,2013-09-18 19:16:00,
2013-09-18 14:17:00,81.8,73.1,30.04,SW,216,3.0,10.0,75,0.00,,---,0.00,VWS V13.01,2013-09-18 19:17:00,
2013-09-18 14:18:00,81.8,73.1,30.04,SW,215,3.0,10.0,75,0.00,,---,0.00,VWS V13.01,2013-09-18 19:18:00,
2013-09-18 14:19:00,81.8,73.1,30.04,SW,215,6.0,10.0,75,0.00,,---,0.00,VWS V13.01,2013-09-18 19:19:00,
2013-09-18 14:20:00,81.8,73.1,30.04,SW,215,7.0,10.0,75,0.00,,---,0.00,VWS V13.01,2013-09-18 19:20:00,
2013-09-18 14:21:00,81.8,73.1,30.04,SW,215,3.0,10.0,75,0.00,,---,0.00,VWS V13.01,2013-09-18 19:21:00,
2013-09-18 14:22:00,81.8,73.5,30.04,SW,216,7.0,10.0,76,0.00,,---,0.00,VWS V13.01,2013-09-18 19:22:00,
2013-09-18 14:23:00,81.8,73.1,30.04,SW,216,5.0,10.0,75,0.00,,---,0.00,VWS V13.01,2013-09-18 19:23:00,
2013-09-18 14:24:00,81.9,73.6,30.04,SW,215,5.0,10.0,76,0.00,,---,0.00,VWS V13.01,2013-09-18 19:24:00,
2013-09-18 14:25:00,81.9,73.6,30.04,SW,216,7.0,10.0,76,0.00,,---,0.00,VWS V13.01,2013-09-18 19:25:00,
2013-09-18 14:26:00,81.9,73.2,30.04,SW,215,7.0,10.0,75,0.00,,---,0.00,VWS V13.01,2013-09-18 19:26:00,
2013-09-18 14:27:00,82.0,73.7,30.04,SW,216,6.0,10.0,76,0.00,,---,0.00,VWS V13.01,2013-09-18 19:27:00,
2013-09-18 14:28:00,82.1,73.8,30.04,SW,215,4.0,10.0,76,0.00,,---,0.00,VWS V13.01,2013-09-18 19:28:00,
2013-09-18 14:29:00,82.1,73.4,30.04,SW,215,4.0,10.0,75,0.00,,---,0.00,VWS V13.01,2013-09-18 19:29:00,
2013-09-18 14:30:00,82.0,72.9,30.04,SW,215,3.0,10.0,74,0.00,,---,0.00,VWS V13.01,2013-09-18 19:30:00,
2013-09-18 14:31:00,82.0,72.9,30.04,SW,215,6.0,10.0,74,0.00,,---,0.00,VWS V13.01,2013-09-18 19:31:00,
2013-09-18 14:32:00,81.9,73.2,30.04,SW,215,6.0,10.0,75,0.00,,---,0.00,VWS V13.01,2013-09-18 19:32:00,
2013-09-18 14:33:00,82.0,74.1,30.04,SW,215,3.0,10.0,77,0.00,,---,0.00,VWS V13.01,2013-09-18 19:33:00,
2013-09-18 14:34:00,82.1,73.8,30.04,SW,219,6.0,11.0,76,0.00,,---,0.00,VWS V13.01,2013-09-18 19:34:00,
2013-09-18 14:35:00,82.2,73.5,30.04,SW,219,5.0,11.0,75,0.00,,---,0.00,VWS V13.01,2013-09-18 19:35:00,
2013-09-18 14:36:00,82.3,73.2,30.04,SW,219,3.0,11.0,74,0.00,,---,0.00,VWS V13.01,2013-09-18 19:36:00,
2013-09-18 14:37:00,82.3,73.6,30.04,SW,219,3.0,11.0,75,0.00,,---,0.00,VWS V13.01,2013-09-18 19:37:00,
2013-09-18 14:38:00,82.4,73.3,30.04,SW,219,3.0,11.0,74,0.00,,---,0.00,VWS V13.01,2013-09-18 19:38:00,
2013-09-18 14:39:00,82.5,73.4,30.04,SW,219,4.0,11.0,74,0.00,,---,0.00,VWS V13.01,2013-09-18 19:39:00,
2013-09-18 14:40:00,82.5,73.8,30.04,SW,219,6.0,11.0,75,0.00,,---,0.00,VWS V13.01,2013-09-18 19:40:00,
2013-09-18 14:41:00,82.6,73.5,30.04,SW,219,8.0,11.0,74,0.00,,---,0.00,VWS V13.01,2013-09-18 19:41:00,
2013-09-18 14:42:00,82.6,73.5,30.04,SW,219,7.0,11.0,74,0.00,,---,0.00,VWS V13.01,2013-09-18 19:42:00,
2013-09-18 14:43:00,82.6,73.5,30.04,SW,219,6.0,11.0,74,0.00,,---,0.00,VWS V13.01,2013-09-18 19:43:00,
2013-09-18 14:44:00,82.5,73.8,30.03,SW,217,7.0,11.0,75,0.00,,---,0.00,VWS V13.01,2013-09-18 19:44:00,
2013-09-18 14:45:00,82.5,73.4,30.03,SW,217,7.0,11.0,74,0.00,,---,0.00,VWS V13.01,2013-09-18 19:45:00,
2013-09-18 14:46:00,82.5,73.8,30.03,SW,217,4.0,11.0,75,0.00,,---,0.00,VWS V13.01,2013-09-18 19:46:00,
2013-09-18 14:47:00,82.5,73.8,30.03,SW,217,4.0,11.0,75,0.00,,---,0.00,VWS V13.01,2013-09-18 19:47:00,
2013-09-18 14:48:00,82.6,74.3,30.04,SW,217,6.0,11.0,76,0.00,,---,0.00,VWS V13.01,2013-09-18 19:48:00,
2013-09-18 14:49:00,82.6,73.9,30.04,SW,217,4.0,11.0,75,0.00,,---,0.00,VWS V13.01,2013-09-18 19:49:00,
2013-09-18 14:50:00,82.6,73.9,30.03,SW,217,9.0,11.0,75,0.00,,---,0.00,VWS V13.01,2013-09-18 19:50:00,
2013-09-18 14:51:00,82.6,73.5,30.03,SW,216,7.0,11.0,74,0.00,,---,0.00,VWS V13.01,2013-09-18 19:51:00,
2013-09-18 14:52:00,82.5,73.0,30.03,SW,215,5.0,11.0,73,0.00,,---,0.00,VWS V13.01,2013-09-18 19:52:00,
2013-09-18 14:53:00,82.4,73.3,30.03,SW,215,9.0,11.0,74,0.00,,---,0.00,VWS V13.01,2013-09-18 19:53:00,
2013-09-18 14:54:00,82.3,73.2,30.03,SSW,213,0.0,11.0,74,0.00,,---,0.00,VWS V13.01,2013-09-18 19:54:00,
2013-09-18 14:55:00,82.2,73.5,30.03,SSW,213,10.0,12.0,75,0.00,,---,0.00,VWS V13.01,2013-09-18 19:55:00,
2013-09-18 14:56:00,82.2,73.1,30.03,SSW,213,7.0,12.0,74,0.00,,---,0.00,VWS V13.01,2013-09-18 19:56:00,
2013-09-18 14:57:00,82.1,73.0,30.03,SSW,213,3.0,12.0,74,0.00,,---,0.00,VWS V13.01,2013-09-18 19:57:00,
2013-09-18 14:58:00,82.1,73.0,30.03,SSW,213,4.0,12.0,74,0.00,,---,0.00,VWS V13.01,2013-09-18 19:58:00,
2013-09-18 14:59:00,82.1,73.4,30.03,SSW,213,5.0,12.0,75,0.00,,---,0.00,VWS V13.01,2013-09-18 19:59:00,
2013-09-18 15:00:00,82.1,73.4,30.03,SSW,213,7.0,12.0,75,0.00,,---,0.00,VWS V13.01,2013-09-18 20:00:00,
2013-09-18 15:01:00,82.1,73.4,30.03,SSW,213,6.0,11.0,75,0.00,,---,0.00,VWS V13.01,2013-09-18 20:01:00,
2013-09-18 15:02:00,82.1,73.4,30.03,SSW,213,6.0,11.0,75,0.00,,---,0.00,VWS V13.01,2013-09-18 20:02:00,
2013-09-18 15:03:00,82.1,73.0,30.03,SSW,213,6.0,11.0,74,0.00,,---,0.00,VWS V13.01,2013-09-18 20:03:00,
2013-09-18 15:04:00,82.0,72.9,30.03,SSW,213,7.0,11.0,74,0.00,,---,0.00,VWS V13.01,2013-09-18 20:04:00,
2013-09-18 15:05:00,81.9,73.2,30.03,SSW,213,10.0,11.0,75,0.00,,---,0.00,VWS V13.01,2013-09-18 20:05:00,
2013-09-18 15:06:00,81.8,73.1,30.03,SSW,213,4.0,11.0,75,0.00,,---,0.00,VWS V13.01,2013-09-18 20:06:00,
2013-09-18 15:07:00,81.7,73.0,30.03,SSW,213,6.0,11.0,75,0.00,,---,0.00,VWS V13.01,2013-09-18 20:07:00,
2013-09-18 15:08:00,81.7,73.4,30.03,SSW,213,9.0,11.0,76,0.00,,---,0.00,VWS V13.01,2013-09-18 20:08:00,
2013-09-18 15:09:00,81.6,73.3,30.03,SSW,213,9.0,11.0,76,0.00,,---,0.00,VWS V13.01,2013-09-18 20:09:00,
2013-09-18 15:10:00,81.6,73.3,30.03,SSW,213,6.0,11.0,76,0.00,,---,0.00,VWS V13.01,2013-09-18 20:10:00,
2013-09-18 15:11:00,81.6,73.3,30.02,SSW,213,7.0,11.0,76,0.00,,---,0.00,VWS V13.01,2013-09-18 20:11:00,
2013-09-18 15:12:00,81.6,72.9,30.02,SSW,213,6.0,11.0,75,0.00,,---,0.00,VWS V13.01,2013-09-18 20:12:00,
2013-09-18 15:13:00,81.6,72.9,30.03,SSW,212,6.0,11.0,75,0.00,,---,0.00,VWS V13.01,2013-09-18 20:13:00,
2013-09-18 15:14:00,81.7,73.0,30.03,SSW,212,5.0,11.0,75,0.00,,---,0.00,VWS V13.01,2013-09-18 20:14:00,
2013-09-18 15:15:00,81.7,72.6,30.03,SSW,211,10.0,11.0,74,0.00,,---,0.00,VWS V13.01,2013-09-18 20:15:00,
2013-09-18 15:16:00,81.7,73.4,30.03,SSW,212,4.0,11.0,76,0.00,,---,0.00,VWS V13.01,2013-09-18 20:16:00,
2013-09-18 15:17:00,81.8,73.5,30.03,SW,215,6.0,11.0,76,0.00,,---,0.00,VWS V13.01,2013-09-18 20:17:00,
2013-09-18 15:18:00,81.8,73.1,30.02,SW,216,5.0,11.0,75,0.00,,---,0.00,VWS V13.01,2013-09-18 20:18:00,
2013-09-18 15:19:00,81.8,73.1,30.02,SW,215,2.0,11.0,75,0.00,,---,0.00,VWS V13.01,2013-09-18 20:19:00,
2013-09-18 15:20:00,81.9,73.2,30.02,SW,216,0.0,11.0,75,0.00,,---,0.00,VWS V13.01,2013-09-18 20:20:00,
2013-09-18 15:21:00,81.9,73.6,30.02,SW,216,7.0,11.0,76,0.00,,---,0.00,VWS V13.01,2013-09-18 20:21:00,
2013-09-18 15:22:00,82.0,73.3,30.03,SW,216,4.0,11.0,75,0.00,,---,0.00,VWS V13.01,2013-09-18 20:22:00,
2013-09-18 15:23:00,82.0,73.3,30.03,SW,215,3.0,11.0,75,0.00,,---,0.00,VWS V13.01,2013-09-18 20:23:00,
2013-09-18 15:24:00,82.1,73.4,30.03,SW,216,6.0,11.0,75,0.00,,---,0.00,VWS V13.01,2013-09-18 20:24:00,
2013-09-18 15:25:00,82.1,73.8,30.03,SW,215,3.0,11.0,76,0.00,,---,0.00,VWS V13.01,2013-09-18 20:25:00,
2013-09-18 15:26:00,82.1,73.4,30.03,SW,216,3.0,11.0,75,0.00,,---,0.00,VWS V13.01,2013-09-18 20:26:00,
2013-09-18 15:27:00,82.1,73.8,30.03,SW,215,6.0,11.0,76,0.00,,---,0.00,VWS V13.01,2013-09-18 20:27:00,
2013-09-18 15:28:00,82.1,73.4,30.03,SW,215,4.0,11.0,75,0.00,,---,0.00,VWS V13.01,2013-09-18 20:28:00,
2013-09-18 15:29:00,82.2,73.5,30.03,SW,215,0.0,11.0,75,0.00,,---,0.00,VWS V13.01,2013-09-18 20:29:00,
2013-09-18 15:30:00,82.2,73.5,30.03,SW,215,3.0,11.0,75,0.00,,---,0.00,VWS V13.01,2013-09-18 20:30:00,
2013-09-18 15:31:00,82.2,73.5,30.03,SW,215,5.0,6.0,75,0.00,,---,0.00,VWS V13.01,2013-09-18 20:31:00,
2013-09-18 15:32:00,82.2,73.5,30.03,SW,215,6.0,10.0,75,0.00,,---,0.00,VWS V13.01,2013-09-18 20:32:00,
2013-09-18 15:33:00,82.2,73.1,30.03,SW,215,10.0,10.0,74,0.00,,---,0.00,VWS V13.01,2013-09-18 20:33:00,
2013-09-18 15:34:00,82.2,73.5,30.03,SW,216,1.0,10.0,75,0.00,,---,0.00,VWS V13.01,2013-09-18 20:34:00,
2013-09-18 15:35:00,82.2,73.1,30.03,SW,216,7.0,10.0,74,0.00,,---,0.00,VWS V13.01,2013-09-18 20:35:00,
2013-09-18 15:36:00,82.2,73.5,30.03,SW,215,3.0,10.0,75,0.00,,---,0.00,VWS V13.01,2013-09-18 20:36:00,
2013-09-18 15:37:00,82.2,73.5,30.03,SW,215,4.0,10.0,75,0.00,,---,0.00,VWS V13.01,2013-09-18 20:37:00,
2013-09-18 15:38:00,82.2,73.5,30.03,SW,215,2.0,10.0,75,0.00,,---,0.00,VWS V13.01,2013-09-18 20:38:00,
2013-09-18 15:39:00,82.1,72.6,30.03,SW,215,4.0,10.0,73,0.00,,---,0.00,VWS V13.01,2013-09-18 20:39:00,
2013-09-18 15:40:00,82.1,73.0,30.03,SW,215,5.0,10.0,74,0.00,,---,0.00,VWS V13.01,2013-09-18 20:40:00,
2013-09-18 15:41:00,82.1,73.0,30.03,SW,215,5.0,10.0,74,0.00,,---,0.00,VWS V13.01,2013-09-18 20:41:00,
2013-09-18 15:42:00,82.1,73.4,30.03,SW,215,4.0,10.0,75,0.00,,---,0.00,VWS V13.01,2013-09-18 20:42:00,
2013-09-18 15:43:00,82.1,73.4,30.03,SW,215,3.0,10.0,75,0.00,,---,0.00,VWS V13.01,2013-09-18 20:43:00,
2013-09-18 15:44:00,82.1,73.4,30.03,SW,215,3.0,10.0,75,0.00,,---,0.00,VWS V13.01,2013-09-18 20:44:00,
2013-09-18 15:45:00,82.1,73.4,30.03,SW,215,3.0,10.0,75,0.00,,---,0.00,VWS V13.01,2013-09-18 20:45:00,
2013-09-18 15:46:00,82.1,73.4,30.03,SW,215,5.0,10.0,75,0.00,,---,0.00,VWS V13.01,2013-09-18 20:46:00,
2013-09-18 15:47:00,82.1,73.4,30.03,SW,215,3.0,10.0,75,0.00,,---,0.00,VWS V13.01,2013-09-18 20:47:00,
2013-09-18 15:48:00,82.1,73.4,30.03,SW,217,6.0,10.0,75,0.00,,---,0.00,VWS V13.01,2013-09-18 20:48:00,
2013-09-18 15:49:00,82.1,73.4,30.03,SW,217,0.0,10.0,75,0.00,,---,0.00,VWS V13.01,2013-09-18 20:49:00,
2013-09-18 15:50:00,82.1,73.4,30.03,SW,217,7.0,10.0,75,0.00,,---,0.00,VWS V13.01,2013-09-18 20:50:00,
2013-09-18 15:51:00,82.1,73.0,30.03,SW,217,5.0,10.0,74,0.00,,---,0.00,VWS V13.01,2013-09-18 20:51:00,
2013-09-18 15:52:00,82.1,73.0,30.03,SW,217,5.0,10.0,74,0.00,,---,0.00,VWS V13.01,2013-09-18 20:52:00,
2013-09-18 15:53:00,82.0,72.9,30.03,SW,217,5.0,10.0,74,0.00,,---,0.00,VWS V13.01,2013-09-18 20:53:00,
2013-09-18 15:54:00,82.1,73.4,30.03,SW,217,5.0,10.0,75,0.00,,---,0.00,VWS V13.01,2013-09-18 20:54:00,
2013-09-18 15:55:00,82.1,73.0,30.03,SW,217,5.0,10.0,74,0.00,,---,0.00,VWS V13.01,2013-09-18 20:55:00,
2013-09-18 15:56:00,82.1,73.0,30.03,SW,217,3.0,10.0,74,0.00,,---,0.00,VWS V13.01,2013-09-18 20:56:00,
2013-09-18 15:57:00,82.1,73.4,30.02,SW,217,5.0,10.0,75,0.00,,---,0.00,VWS V13.01,2013-09-18 20:57:00,
2013-09-18 15:58:00,82.1,73.8,30.02,SW,217,4.0,10.0,76,0.00,,---,0.00,VWS V13.01,2013-09-18 20:58:00,
2013-09-18 15:59:00,82.2,73.5,30.03,SW,215,4.0,11.0,75,0.00,,---,0.00,VWS V13.01,2013-09-18 20:59:00,
2013-09-18 16:00:00,81.9,73.2,30.03,SSW,209,3.0,11.0,75,0.00,,---,0.00,VWS V13.01,2013-09-18 21:00:00,
2013-09-18 16:01:00,81.8,73.5,30.02,SSW,209,4.0,5.0,76,0.00,,---,0.00,VWS V13.01,2013-09-18 21:01:00,
2013-09-18 16:02:00,81.8,73.5,30.03,SSW,209,5.0,8.0,76,0.00,,---,0.00,VWS V13.01,2013-09-18 21:02:00,
2013-09-18 16:03:00,81.6,73.3,30.02,SSW,209,6.0,8.0,76,0.00,,---,0.00,VWS V13.01,2013-09-18 21:03:00,
2013-09-18 16:04:00,81.6,73.3,30.02,SSW,209,0.0,8.0,76,0.00,,---,0.00,VWS V13.01,2013-09-18 21:04:00,
2013-09-18 16:05:00,81.5,73.2,30.02,SSW,209,3.0,8.0,76,0.00,,---,0.00,VWS V13.01,2013-09-18 21:05:00,
2013-09-18 16:06:00,81.4,73.5,30.02,SSW,209,3.0,8.0,77,0.00,,---,0.00,VWS V13.01,2013-09-18 21:06:00,
2013-09-18 16:07:00,81.5,73.6,30.02,SSW,209,4.0,8.0,77,0.00,,---,0.00,VWS V13.01,2013-09-18 21:07:00,
2013-09-18 16:08:00,81.4,73.5,30.02,SSW,209,1.0,8.0,77,0.00,,---,0.00,VWS V13.01,2013-09-18 21:08:00,
2013-09-18 16:09:00,81.5,73.6,30.02,SSW,209,7.0,8.0,77,0.00,,---,0.00,VWS V13.01,2013-09-18 21:09:00,
2013-09-18 16:10:00,81.4,73.5,30.02,SSW,209,5.0,9.0,77,0.00,,---,0.00,VWS V13.01,2013-09-18 21:10:00,
2013-09-18 16:11:00,81.4,73.5,30.02,SSW,209,0.0,9.0,77,0.00,,---,0.00,VWS V13.01,2013-09-18 21:11:00,
2013-09-18 16:12:00,81.4,73.5,30.02,SSW,209,3.0,9.0,77,0.00,,---,0.00,VWS V13.01,2013-09-18 21:12:00,
2013-09-18 16:13:00,81.4,73.9,30.02,SSW,209,3.0,9.0,78,0.00,,---,0.00,VWS V13.01,2013-09-18 21:13:00,
2013-09-18 16:14:00,81.4,73.9,30.02,SSW,209,3.0,9.0,78,0.00,,---,0.00,VWS V13.01,2013-09-18 21:14:00,
2013-09-18 16:15:00,81.4,73.5,30.02,SSW,209,3.0,9.0,77,0.00,,---,0.00,VWS V13.01,2013-09-18 21:15:00,
2013-09-18 16:16:00,81.3,73.0,30.02,SSW,209,4.0,9.0,76,0.00,,---,0.00,VWS V13.01,2013-09-18 21:16:00,
2013-09-18 16:17:00,81.3,73.4,30.02,SSW,209,5.0,9.0,77,0.00,,---,0.00,VWS V13.01,2013-09-18 21:17:00,
2013-09-18 16:18:00,81.3,73.8,30.02,SSW,209,4.0,9.0,78,0.00,,---,0.00,VWS V13.01,2013-09-18 21:18:00,
2013-09-18 16:19:00,81.3,73.4,30.02,SSW,209,5.0,9.0,77,0.00,,---,0.00,VWS V13.01,2013-09-18 21:19:00,
2013-09-18 16:20:00,81.2,73.7,30.02,SSW,209,4.0,9.0,78,0.00,,---,0.00,VWS V13.01,2013-09-18 21:20:00,
2013-09-18 16:21:00,81.2,73.3,30.02,SSW,209,4.0,9.0,77,0.00,,---,0.00,VWS V13.01,2013-09-18 21:21:00,
2013-09-18 16:22:00,81.2,73.3,30.02,SSW,209,3.0,9.0,77,0.00,,---,0.00,VWS V13.01,2013-09-18 21:22:00,
2013-09-18 16:23:00,81.2,73.3,30.02,SSW,209,2.0,9.0,77,0.00,,---,0.00,VWS V13.01,2013-09-18 21:23:00,
2013-09-18 16:24:00,81.2,73.3,30.02,SSW,209,3.0,9.0,77,0.00,,---,0.00,VWS V13.01,2013-09-18 21:24:00,
2013-09-18 16:25:00,81.2,73.7,30.02,SSW,209,2.0,9.0,78,0.00,,---,0.00,VWS V13.01,2013-09-18 21:25:00,
2013-09-18 16:26:00,81.2,73.3,30.02,SSW,209,2.0,9.0,77,0.00,,---,0.00,VWS V13.01,2013-09-18 21:26:00,
2013-09-18 16:27:00,81.2,73.7,30.02,SSW,209,0.0,9.0,78,0.00,,---,0.00,VWS V13.01,2013-09-18 21:27:00,
2013-09-18 16:28:00,81.2,73.7,30.02,SSW,209,3.0,9.0,78,0.00,,---,0.00,VWS V13.01,2013-09-18 21:28:00,
2013-09-18 16:29:00,81.2,73.7,30.02,SSW,209,3.0,9.0,78,0.00,,---,0.00,VWS V13.01,2013-09-18 21:29:00,
2013-09-18 16:30:00,81.2,73.7,30.02,SSW,209,0.0,9.0,78,0.00,,---,0.00,VWS V13.01,2013-09-18 21:30:00,
2013-09-18 16:31:00,81.2,73.7,30.02,SSW,209,2.0,2.0,78,0.00,,---,0.00,VWS V13.01,2013-09-18 21:31:00,
2013-09-18 16:32:00,81.2,73.7,30.02,SSW,209,5.0,5.0,78,0.00,,---,0.00,VWS V13.01,2013-09-18 21:32:00,
2013-09-18 16:33:00,81.3,73.8,30.02,SSW,209,0.0,5.0,78,0.00,,---,0.00,VWS V13.01,2013-09-18 21:33:00,
2013-09-18 16:34:00,81.3,73.8,30.02,SSW,209,0.0,5.0,78,0.00,,---,0.00,VWS V13.01,2013-09-18 21:34:00,
2013-09-18 16:35:00,81.3,73.8,30.02,SSW,209,0.0,5.0,78,0.00,,---,0.00,VWS V13.01,2013-09-18 21:35:00,
2013-09-18 16:36:00,81.3,74.2,30.02,SSW,209,0.0,5.0,79,0.00,,---,0.00,VWS V13.01,2013-09-18 21:36:00,
2013-09-18 16:37:00,81.4,74.3,30.02,SSW,209,2.0,5.0,79,0.00,,---,0.00,VWS V13.01,2013-09-18 21:37:00,
2013-09-18 16:38:00,81.4,73.9,30.02,SSW,209,3.0,6.0,78,0.00,,---,0.00,VWS V13.01,2013-09-18 21:38:00,
2013-09-18 16:39:00,81.2,73.7,30.02,SSW,209,2.0,7.0,78,0.00,,---,0.00,VWS V13.01,2013-09-18 21:39:00,
2013-09-18 16:40:00,81.2,73.7,30.02,SSW,209,3.0,7.0,78,0.00,,---,0.00,VWS V13.01,2013-09-18 21:40:00,
2013-09-18 16:41:00,81.1,73.6,30.02,SSW,209,4.0,7.0,78,0.00,,---,0.00,VWS V13.01,2013-09-18 21:41:00,
2013-09-18 16:42:00,81.0,73.5,30.02,SSW,209,3.0,7.0,78,0.00,,---,0.00,VWS V13.01,2013-09-18 21:42:00,
2013-09-18 16:43:00,81.0,73.9,30.02,SSW,209,3.0,7.0,79,0.00,,---,0.00,VWS V13.01,2013-09-18 21:43:00,
2013-09-18 16:44:00,81.0,73.9,30.02,SSW,209,0.0,7.0,79,0.00,,---,0.00,VWS V13.01,2013-09-18 21:44:00,
2013-09-18 16:45:00,80.9,73.8,30.02,SSW,209,0.0,7.0,79,0.00,,---,0.00,VWS V13.01,2013-09-18 21:45:00,
2013-09-18 16:46:00,80.9,73.8,30.02,SSW,209,0.0,7.0,79,0.00,,---,0.00,VWS V13.01,2013-09-18 21:46:00,
2013-09-18 16:47:00,80.9,73.8,30.02,SSW,209,0.0,7.0,79,0.00,,---,0.00,VWS V13.01,2013-09-18 21:47:00,
2013-09-18 16:48:00,80.9,74.2,30.02,SSW,209,0.0,7.0,80,0.00,,---,0.00,VWS V13.01,2013-09-18 21:48:00,
2013-09-18 16:49:00,80.9,74.2,30.02,SSW,209,2.0,7.0,80,0.00,,---,0.00,VWS V13.01,2013-09-18 21:49:00,
2013-09-18 16:50:00,80.8,73.7,30.02,SSW,209,0.0,7.0,79,0.00,,---,0.00,VWS V13.01,2013-09-18 21:50:00,
2013-09-18 16:51:00,80.8,73.7,30.02,SSW,209,3.0,7.0,79,0.00,,---,0.00,VWS V13.01,2013-09-18 21:51:00,
2013-09-18 16:52:00,80.7,73.6,30.02,SSW,209,0.0,7.0,79,0.00,,---,0.00,VWS V13.01,2013-09-18 21:52:00,
2013-09-18 16:53:00,80.7,73.6,30.02,SSW,209,0.0,7.0,79,0.00,,---,0.00,VWS V13.01,2013-09-18 21:53:00,
2013-09-18 16:54:00,80.7,73.6,30.02,SSW,209,0.0,7.0,79,0.00,,---,0.00,VWS V13.01,2013-09-18 21:54:00,
2013-09-18 16:55:00,80.6,73.9,30.02,SSW,209,0.0,7.0,80,0.00,,---,0.00,VWS V13.01,2013-09-18 21:55:00,
2013-09-18 16:56:00,80.6,73.9,30.02,SSW,209,0.0,7.0,80,0.00,,---,0.00,VWS V13.01,2013-09-18 21:56:00,
2013-09-18 16:57:00,80.6,73.9,30.02,SSW,209,0.0,7.0,80,0.00,,---,0.00,VWS V13.01,2013-09-18 21:57:00,
2013-09-18 16:58:00,80.6,73.9,30.02,SSW,209,0.0,7.0,80,0.00,,---,0.00,VWS V13.01,2013-09-18 21:58:00,
2013-09-18 16:59:00,80.5,73.8,30.02,SSW,209,0.0,7.0,80,0.00,,---,0.00,VWS V13.01,2013-09-18 21:59:00,
2013-09-18 17:00:00,80.5,73.8,30.02,SSW,209,3.0,7.0,80,0.00,,---,0.00,VWS V13.01,2013-09-18 22:00:00,
2013-09-18 17:01:00,80.5,73.8,30.02,SSW,209,4.0,4.0,80,0.00,,---,0.00,VWS V13.01,2013-09-18 22:01:00,
2013-09-18 17:02:00,80.5,73.4,30.02,SSW,209,3.0,4.0,79,0.00,,---,0.00,VWS V13.01,2013-09-18 22:02:00,
2013-09-18 17:03:00,80.5,73.4,30.02,SSW,209,3.0,5.0,79,0.00,,---,0.00,VWS V13.01,2013-09-18 22:03:00,
2013-09-18 17:04:00,80.4,73.3,30.02,SSW,209,3.0,5.0,79,0.00,,---,0.00,VWS V13.01,2013-09-18 22:04:00,
2013-09-18 17:05:00,80.4,73.3,30.02,SSW,209,4.0,5.0,79,0.00,,---,0.00,VWS V13.01,2013-09-18 22:05:00,
2013-09-18 17:06:00,80.4,73.3,30.02,SSW,209,0.0,5.0,79,0.00,,---,0.00,VWS V13.01,2013-09-18 22:06:00,
2013-09-18 17:07:00,80.4,73.3,30.02,SSW,209,2.0,5.0,79,0.00,,---,0.00,VWS V13.01,2013-09-18 22:07:00,
2013-09-18 17:08:00,80.3,73.2,30.02,SSW,209,0.0,5.0,79,0.00,,---,0.00,VWS V13.01,2013-09-18 22:08:00,
2013-09-18 17:09:00,80.3,73.2,30.02,SSW,209,3.0,5.0,79,0.00,,---,0.00,VWS V13.01,2013-09-18 22:09:00,
2013-09-18 17:10:00,80.3,73.2,30.02,SSW,209,3.0,6.0,79,0.00,,---,0.00,VWS V13.01,2013-09-18 22:10:00,
2013-09-18 17:11:00,80.2,73.1,30.02,SSW,209,3.0,6.0,79,0.00,,---,0.00,VWS V13.01,2013-09-18 22:11:00,
2013-09-18 17:12:00,80.2,73.1,30.02,SSW,209,5.0,6.0,79,0.00,,---,0.00,VWS V13.01,2013-09-18 22:12:00,
2013-09-18 17:13:00,80.1,73.4,30.02,SSW,209,3.0,6.0,80,0.00,,---,0.00,VWS V13.01,2013-09-18 22:13:00,
2013-09-18 17:14:00,80.1,73.4,30.02,SSW,209,3.0,6.0,80,0.00,,---,0.00,VWS V13.01,2013-09-18 22:14:00,
2013-09-18 17:15:00,80.0,73.3,30.02,SSW,209,2.0,6.0,80,0.00,,---,0.00,VWS V13.01,2013-09-18 22:15:00,
2013-09-18 17:16:00,80.0,73.3,30.02,SSW,209,2.0,6.0,80,0.00,,---,0.00,VWS V13.01,2013-09-18 22:16:00,
2013-09-18 17:17:00,79.9,73.2,30.02,SSW,209,0.0,6.0,80,0.00,,---,0.00,VWS V13.01,2013-09-18 22:17:00,
2013-09-18 17:18:00,79.9,73.6,30.02,SSW,209,0.0,6.0,81,0.00,,---,0.00,VWS V13.01,2013-09-18 22:18:00,
2013-09-18 17:19:00,79.9,73.6,30.02,SSW,209,4.0,6.0,81,0.00,,---,0.00,VWS V13.01,2013-09-18 22:19:00,
2013-09-18 17:20:00,79.8,73.4,30.02,SSW,209,3.0,6.0,81,0.00,,---,0.00,VWS V13.01,2013-09-18 22:20:00,
2013-09-18 17:21:00,79.8,73.4,30.02,SSW,209,2.0,6.0,81,0.00,,---,0.00,VWS V13.01,2013-09-18 22:21:00,
2013-09-18 17:22:00,79.8,73.4,30.02,SSW,209,4.0,6.0,81,0.00,,---,0.00,VWS V13.01,2013-09-18 22:22:00,
2013-09-18 17:23:00,79.8,73.4,30.02,SSW,209,2.0,6.0,81,0.00,,---,0.00,VWS V13.01,2013-09-18 22:23:00,
2013-09-18 17:24:00,79.7,73.4,30.02,SSW,209,0.0,6.0,81,0.00,,---,0.00,VWS V13.01,2013-09-18 22:24:00,
2013-09-18 17:25:00,79.7,73.4,30.02,SSW,209,2.0,6.0,81,0.00,,---,0.00,VWS V13.01,2013-09-18 22:25:00,
2013-09-18 17:26:00,79.6,73.3,30.02,SSW,209,4.0,6.0,81,0.00,,---,0.00,VWS V13.01,2013-09-18 22:26:00,
2013-09-18 17:27:00,79.6,73.6,30.02,SSW,209,4.0,6.0,82,0.00,,---,0.00,VWS V13.01,2013-09-18 22:27:00,
2013-09-18 17:28:00,79.5,73.5,30.02,SSW,209,3.0,6.0,82,0.00,,---,0.00,VWS V13.01,2013-09-18 22:28:00,
2013-09-18 17:29:00,79.5,73.5,30.02,SSW,209,4.0,7.0,82,0.00,,---,0.00,VWS V13.01,2013-09-18 22:29:00,
2013-09-18 17:30:00,79.5,73.5,30.02,SSW,209,5.0,7.0,82,0.00,,---,0.00,VWS V13.01,2013-09-18 22:30:00,
2013-09-18 17:31:00,79.4,73.4,30.02,SSW,209,2.0,5.0,82,0.00,,---,0.00,VWS V13.01,2013-09-18 22:31:00,
2013-09-18 17:32:00,79.4,73.4,30.02,SSW,209,3.0,5.0,82,0.00,,---,0.00,VWS V13.01,2013-09-18 22:32:00,
2013-09-18 17:33:00,79.3,73.3,30.02,SSW,209,5.0,5.0,82,0.00,,---,0.00,VWS V13.01,2013-09-18 22:33:00,
2013-09-18 17:34:00,79.3,73.3,30.02,SSW,209,4.0,5.0,82,0.00,,---,0.00,VWS V13.01,2013-09-18 22:34:00,
2013-09-18 17:35:00,79.2,73.2,30.02,SSW,209,0.0,5.0,82,0.00,,---,0.00,VWS V13.01,2013-09-18 22:35:00,
2013-09-18 17:36:00,79.2,73.2,30.02,SSW,209,3.0,5.0,82,0.00,,---,0.00,VWS V13.01,2013-09-18 22:36:00,
2013-09-18 17:37:00,79.2,73.2,30.02,SSW,209,1.0,5.0,82,0.00,,---,0.00,VWS V13.01,2013-09-18 22:37:00,
2013-09-18 17:38:00,79.1,73.1,30.02,SSW,209,2.0,5.0,82,0.00,,---,0.00,VWS V13.01,2013-09-18 22:38:00,
2013-09-18 17:39:00,79.1,73.5,30.02,SSW,209,3.0,5.0,83,0.00,,---,0.00,VWS V13.01,2013-09-18 22:39:00,
2013-09-18 17:40:00,79.0,73.0,30.02,SSW,209,0.0,5.0,82,0.00,,---,0.00,VWS V13.01,2013-09-18 22:40:00,
2013-09-18 17:41:00,79.0,73.4,30.02,SSW,209,0.0,5.0,83,0.00,,---,0.00,VWS V13.01,2013-09-18 22:41:00,
2013-09-18 17:42:00,79.0,73.4,30.02,SSW,209,3.0,5.0,83,0.00,,---,0.00,VWS V13.01,2013-09-18 22:42:00,
2013-09-18 17:43:00,78.9,72.9,30.02,SSW,209,3.0,6.0,82,0.00,,---,0.00,VWS V13.01,2013-09-18 22:43:00,
2013-09-18 17:44:00,78.9,72.9,30.02,SSW,209,2.0,6.0,82,0.00,,---,0.00,VWS V13.01,2013-09-18 22:44:00,
2013-09-18 17:45:00,78.8,73.2,30.02,SSW,209,3.0,6.0,83,0.00,,---,0.00,VWS V13.01,2013-09-18 22:45:00,
2013-09-18 17:46:00,78.7,73.1,30.02,SSW,209,4.0,6.0,83,0.00,,---,0.00,VWS V13.01,2013-09-18 22:46:00,
2013-09-18 17:47:00,78.7,73.1,30.01,SSW,209,4.0,6.0,83,0.00,,---,0.00,VWS V13.01,2013-09-18 22:47:00,
2013-09-18 17:48:00,78.7,73.1,30.01,SSW,209,5.0,6.0,83,0.00,,---,0.00,VWS V13.01,2013-09-18 22:48:00,
2013-09-18 17:49:00,78.7,73.1,30.02,SSW,209,5.0,6.0,83,0.00,,---,0.00,VWS V13.01,2013-09-18 22:49:00,
2013-09-18 17:50:00,78.6,73.0,30.02,SSW,209,4.0,6.0,83,0.00,,---,0.00,VWS V13.01,2013-09-18 22:50:00,
2013-09-18 17:51:00,78.5,72.9,30.02,SSW,209,2.0,6.0,83,0.00,,---,0.00,VWS V13.01,2013-09-18 22:51:00,
2013-09-18 17:52:00,78.5,72.9,30.01,SSW,209,3.0,6.0,83,0.00,,---,0.00,VWS V13.01,2013-09-18 22:52:00,
2013-09-18 17:53:00,78.4,72.8,30.01,SSW,209,4.0,6.0,83,0.00,,---,0.00,VWS V13.01,2013-09-18 22:53:00,
2013-09-18 17:54:00,78.4,72.8,30.01,SSW,209,2.0,6.0,83,0.00,,---,0.00,VWS V13.01,2013-09-18 22:54:00,
2013-09-18 17:55:00,78.3,73.1,30.01,SSW,209,4.0,6.0,84,0.00,,---,0.00,VWS V13.01,2013-09-18 22:55:00,
2013-09-18 17:56:00,78.2,73.0,30.01,SSW,209,2.0,6.0,84,0.00,,---,0.00,VWS V13.01,2013-09-18 22:56:00,
2013-09-18 17:57:00,78.1,72.9,30.01,SSW,209,2.0,6.0,84,0.00,,---,0.00,VWS V13.01,2013-09-18 22:57:00,
2013-09-18 17:58:00,78.1,72.9,30.01,SSW,209,3.0,6.0,84,0.00,,---,0.00,VWS V13.01,2013-09-18 22:58:00,